[{"header": {"dx": 0.06612293990616946, "dy": 0.0552356325346848, "nx": 98, "ny": 59, "la1": 35.046912555036876, "la2": 31.78801023549047, "lo1": -121.43107172385933, "lo2": -114.95102361305473, "refTime": "2026041808", "parameterCategory": 1, "parameterNumber": 2}, "data": [7.96, 8.23, 8.23, 7.96, 7.6, 7.61, 6.7, 5.72, 5.1, 4.47, 3.22, 2.51, 0.6, 0.0, 0.0, 0.45, -0.89, -1.6, -1.26, -1.26, -0.95, 0.45, 0.89, 1.79, 2.24, 2.68, 3.13, 3.07, 3.07, 3.16, 3.48, 2.79, 2.53, 1.88, 2.15, 2.63, 3.58, 3.58, 3.58, 3.51, 3.53, 3.51, 3.9, 5.4, 6.4, 8.24, 9.9, 9.9, 9.3, 7.69, 3.2, 1.49, 2.21, 2.53, 2.41, 2.3, 2.98, 4.11, 4.46, 4.84, 2.5, 0.57, -0.0, 0.71, 1.24, 1.9, 3.45, 4.4, 4.93, 6.28, 6.79, 6.51, 5.16, 3.97, 3.51, 4.66, 4.66, 6.11, 6.22, 3.53, 2.6, 2.17, 2.4, 1.2, 0.0, -1.58, -1.61, -1.16, -0.59, 0.0, 0.0, 0.0, 0.0, 0.0, 0.0, 0.63, 1.23, 1.76, 8.23, 8.23, 7.96, 7.96, 7.6, 7.33, 6.71, 6.35, 5.45, 4.73, 3.84, 1.88, 1.24, 0.95, 1.79, 0.89, 0.0, -0.63, -1.26, -1.24, -0.8, 0.0, 0.63, 1.79, 2.24, 2.68, 2.68, 2.6, 2.15, 1.88, 1.84, 1.88, 1.24, 0.99, 1.86, 2.6, 3.58, 3.58, 3.97, 3.53, 3.74, 4.57, 6.4, 7.06, 8.65, 9.23, 9.9, 9.27, 7.02, 2.8, 1.86, 1.88, 3.22, 3.49, 2.51, 2.53, 3.72, 4.81, 5.09, 5.43, 3.84, 2.68, 2.07, 2.07, 1.88, 2.53, 3.22, 4.22, 4.8, 5.34, 6.28, 5.59, 4.41, 4.41, 3.07, 3.95, 4.73, 6.11, 6.22, 3.53, 2.6, 2.17, 2.4, 1.2, 0.0, -1.58, -1.61, -1.16, -0.59, 0.0, 0.0, 0.0, 0.0, 0.0, 0.0, 0.63, 1.23, 1.76, 8.23, 7.96, 7.96, 7.6, 7.6, 7.33, 6.71, 6.34, 5.72, 5.1, 4.47, 3.49, 1.88, 1.58, 1.7, 1.34, 0.45, 0.0, -0.57, -0.71, -1.2, -0.65, 0.0, 0.8, 2.12, 2.68, 2.68, 2.6, 1.86, 0.57, 0.57, -0.0, 0.0, 0.0, 0.89, 2.24, 3.13, 4.02, 4.41, 4.66, 5.6, 6.96, 8.3, 8.9, 9.23, 8.53, 8.3, 6.08, 3.07, 2.23, 2.21, 3.45, 3.83, 3.16, 2.48, 3.07, 3.79, 4.81, 5.46, 5.43, 4.46, 3.07, 2.4, 3.22, 2.73, 3.07, 3.79, 4.81, 5.46, 5.46, 5.69, 6.0, 5.59, 3.97, 2.68, 2.68, 3.97, 7.01, 6.67, 4.02, 3.13, 2.68, 2.17, 0.63, -1.34, -2.6, -2.4, -1.9, -0.61, 0.0, 0.7, 0.0, 0.0, 0.0, 0.0, 0.0, 0.57, 1.27, 7.59, 7.59, 7.87, 7.6, 7.33, 7.24, 6.97, 6.34, 5.98, 5.09, 4.73, 3.85, 2.15, 1.61, 1.86, 1.7, 1.2, 0.95, 0.0, -1.2, -1.9, -1.24, -0.71, 0.0, 0.57, 1.2, 1.79, 2.12, 1.7, 0.63, 0.0, -0.6, -1.49, -0.8, 0.0, 1.86, 2.8, 4.57, 6.0, 6.08, 7.33, 8.6, 8.53, 7.97, 6.7, 6.4, 5.59, 4.02, 3.51, 3.83, 4.0, 3.83, 3.83, 3.16, 3.07, 3.79, 4.46, 5.09, 5.69, 5.43, 4.19, 2.4, 2.29, 2.29, 3.11, 3.9, 3.9, 5.06, 5.69, 6.35, 6.7, 6.64, 6.79, 5.2, 3.13, 2.68, 3.07, 5.36, 7.6, 4.02, 3.07, 2.63, 2.68, 1.34, -1.34, -2.68, -2.24, -1.26, 0.0, 1.23, 1.41, 0.67, 0.0, -0.7, 0.0, 0.0, 0.0, 0.59, 7.59, 7.59, 7.6, 7.6, 7.33, 7.24, 6.97, 6.33, 6.08, 5.46, 5.1, 4.1, 2.41, 1.61, 1.9, 1.58, 1.86, 1.26, 0.0, -1.88, -2.21, -2.23, -1.26, -1.26, -1.26, 0.0, 0.0, 0.89, 0.89, 0.89, 0.0, -0.57, -2.07, -2.11, 0.0, 1.83, 3.22, 5.37, 6.24, 6.88, 7.18, 6.95, 6.08, 4.93, 4.47, 4.92, 5.81, 5.81, 4.87, 4.66, 4.24, 3.83, 3.45, 3.16, 3.79, 4.46, 5.05, 5.43, 6.07, 6.0, 3.49, 1.41, 1.47, 1.52, 2.35, 3.79, 4.65, 4.36, 4.65, 5.69, 6.7, 7.89, 7.56, 6.79, 4.41, 3.13, 2.4, 3.82, 6.66, 4.43, 2.4, 2.4, 3.07, 2.24, 0.0, -1.7, -0.6, 0.0, 1.27, 2.11, 2.11, 1.23, 0.0, 0.0, -1.27, -0.59, 0.0, 0.59, 7.59, 7.59, 7.6, 7.6, 7.33, 6.97, 6.97, 6.33, 6.34, 5.72, 5.09, 4.47, 2.41, 1.9, 1.9, 1.9, 1.61, 1.49, 0.53, -0.59, -2.3, -2.51, -2.21, -1.86, -1.58, -1.24, -0.71, 0.0, 0.0, 0.63, 0.45, 0.45, 0.0, -0.78, 0.0, 0.76, 2.26, 4.71, 6.88, 5.64, 4.71, 4.19, 3.83, 4.87, 6.21, 7.12, 7.11, 5.81, 4.87, 3.95, 3.32, 3.32, 3.45, 3.16, 3.49, 4.46, 5.05, 4.46, 6.0, 6.54, 2.84, -0.0, -0.0, 1.52, 2.2, 3.79, 4.65, 4.43, 3.79, 5.43, 6.36, 6.98, 6.98, 7.45, 6.98, 5.77, 3.58, 3.32, 3.53, 4.47, 2.17, 1.9, 3.07, 2.68, 0.57, 0.0, 0.0, 1.27, 2.2, 2.11, 1.23, 1.23, 0.66, -0.61, -1.88, -0.53, 0.0, 1.16, 7.59, 7.33, 7.6, 7.33, 6.96, 6.97, 6.97, 6.33, 6.34, 5.72, 5.09, 4.46, 2.79, 1.9, 3.16, 1.49, 1.2, 2.15, 2.07, 0.0, -1.11, -2.2, -2.88, -2.98, -1.8, -1.6, -1.8, -0.87, 0.0, -0.71, -0.45, 0.0, 0.63, 0.65, 0.69, 0.71, 1.49, 3.99, 5.15, 3.9, 3.22, 1.98, 3.0, 5.15, 7.07, 5.64, 4.47, 4.41, 4.66, 6.17, 5.26, 2.91, 3.22, 3.49, 3.83, 4.4, 4.4, 4.4, 5.16, 5.59, 1.9, -0.0, -0.0, 0.73, 1.41, 3.22, 4.74, 5.05, 4.66, 5.31, 6.26, 5.81, 5.81, 6.71, 7.15, 7.15, 6.26, 3.58, 3.07, 4.47, 3.58, 2.53, 3.48, 2.79, 1.84, 0.0, 0.0, 0.76, 1.41, 1.41, 1.36, 0.59, 0.0, -1.86, -1.49, 0.0, 0.53, 1.33, 7.59, 7.33, 7.6, 7.33, 6.96, 6.97, 6.71, 6.33, 6.34, 5.7, 5.08, 4.03, 2.98, 2.15, 3.79, 1.9, 1.88, 2.41, 2.79, 2.53, 1.58, 0.71, 0.0, -1.35, -2.9, -2.12, -2.12, -2.12, -2.76, -2.53, -2.23, -0.8, 0.0, 1.74, 2.11, 1.45, 0.71, 2.35, 4.47, 4.43, 1.49, 0.65, 1.08, 2.0, 1.26, 0.63, 1.9, 3.74, 4.93, 6.17, 3.07, 2.8, 3.45, 3.84, 4.09, 4.4, 4.8, 4.4, 5.59, 4.24, 1.86, -0.0, -0.0, -0.0, 0.87, 2.21, 5.05, 6.07, 4.92, 4.87, 5.31, 5.31, 5.64, 6.98, 6.98, 6.55, 5.81, 4.87, 4.87, 6.71, 7.6, 5.2, 4.74, 4.29, 2.44, 1.11, 0.57, 1.27, 1.23, 1.35, 0.59, -1.23, -2.51, -2.4, -0.63, 0.57, 1.88, 1.84, 7.59, 7.6, 7.6, 7.33, 6.96, 6.97, 6.71, 6.33, 6.34, 5.7, 5.06, 4.42, 3.4, 2.51, 2.4, 1.49, 2.3, 2.3, 2.53, 2.8, 2.6, 3.13, 3.13, 1.88, 0.0, -0.88, -1.66, -2.99, -5.59, -2.95, -1.83, -1.03, 0.0, 1.03, 2.29, 2.4, 1.03, 2.12, 2.0, 1.26, 0.0, 0.0, 0.0, 0.45, -0.6, -0.0, 0.8, 2.23, 3.45, 3.83, 4.98, 2.84, 3.84, 4.46, 4.84, 5.05, 5.43, 6.28, 5.86, 5.59, 3.32, 0.71, -0.0, -0.0, 0.8, 2.6, 5.59, 6.66, 4.47, 4.15, 3.74, 5.16, 6.28, 6.85, 5.94, 4.73, 3.97, 4.92, 6.71, 7.6, 8.49, 6.14, 4.37, 4.71, 3.12, 1.84, 0.0, 0.0, 0.42, 0.0, -1.13, -3.16, -3.72, -2.21, 0.0, 1.58, 2.21, 1.84, 7.33, 7.6, 7.6, 6.96, 6.96, 6.97, 6.71, 6.33, 6.34, 5.95, 5.7, 5.69, 5.32, 3.97, 2.31, 2.31, 2.44, 1.67, 1.07, 1.03, 0.88, 1.6, 3.22, 3.22, 1.6, 0.0, -1.6, -3.48, -5.06, -2.12, 0.0, 0.0, 0.0, 0.0, 0.0, 0.96, 2.99, 1.88, 0.0, 0.45, -0.63, -0.63, -0.0, -0.6, -1.26, -0.8, -0.0, 0.8, 1.9, 2.15, 2.79, 3.48, 4.46, 4.46, 5.05, 5.43, 6.0, 6.79, 6.55, 6.51, 4.87, 2.53, 2.4, 1.4, 1.49, 2.4, 5.16, 6.66, 3.58, 2.4, 2.86, 5.05, 6.13, 6.13, 5.44, 4.0, 3.45, 4.4, 5.94, 7.01, 8.02, 8.05, 5.2, 4.37, 3.79, 2.5, 0.0, -0.95, -0.89, -2.15, -3.14, -2.84, -2.51, -1.84, 0.0, 1.16, 1.84, 2.07, 7.33, 7.6, 7.6, 6.96, 6.96, 6.97, 6.97, 6.33, 6.34, 6.34, 5.69, 6.33, 6.08, 5.29, 3.27, 2.44, 2.47, 1.67, 1.17, 1.16, 0.74, 0.79, 2.47, 2.4, 2.12, 0.0, -1.6, -2.53, -2.41, -0.88, 0.0, 0.0, -0.57, 0.0, 0.0, 0.98, 2.53, 0.89, -0.89, -0.45, 0.0, 0.0, -0.0, -0.0, -1.2, -0.0, -0.0, -0.0, 0.54, 0.65, 1.88, 2.86, 4.0, 5.16, 4.93, 5.34, 6.55, 7.11, 7.15, 6.71, 4.41, 2.79, 2.2, 1.41, 1.41, 3.16, 4.8, 5.34, 3.51, 2.17, 2.21, 3.78, 5.05, 4.27, 4.0, 4.24, 3.45, 3.49, 4.46, 5.69, 6.64, 7.04, 5.78, 4.52, 3.72, 3.39, 2.24, 0.89, -0.45, -1.86, -2.51, -1.8, -1.8, -1.8, -0.59, 0.59, 1.13, 1.8, 7.33, 7.6, 7.22, 6.96, 6.96, 6.97, 6.97, 6.71, 6.33, 6.33, 6.33, 6.33, 6.33, 6.34, 6.01, 4.83, 4.08, 3.35, 2.93, 2.21, 1.14, 1.11, 1.12, 1.0, 0.0, 0.0, -1.98, -2.97, -3.07, -2.86, -2.21, -2.24, -2.12, -1.79, -0.63, 0.0, 0.0, -1.34, -1.34, -0.63, 0.0, -0.0, -0.0, -0.0, -1.27, -0.61, -0.0, -0.0, 0.8, 0.95, 1.79, 2.24, 3.13, 4.02, 4.47, 5.36, 6.71, 7.15, 7.12, 4.92, 2.5, 2.4, 1.6, 0.76, 0.66, 2.84, 4.84, 5.75, 5.16, 3.58, 2.91, 3.32, 3.74, 3.04, 3.07, 4.41, 3.74, 2.86, 4.75, 5.38, 4.46, 4.52, 4.43, 4.43, 3.82, 3.53, 3.53, 2.63, 1.49, 0.6, 0.0, -0.59, -1.6, -1.6, -0.59, 0.0, 0.66, 1.11, 7.33, 7.6, 7.22, 6.96, 6.96, 6.96, 6.97, 6.97, 6.71, 6.33, 6.33, 6.33, 6.71, 6.71, 6.69, 6.32, 5.65, 5.35, 5.08, 4.46, 3.83, 2.8, 1.7, 0.99, 1.0, 1.2, 0.0, -2.24, -4.89, -6.26, -4.02, -3.13, -3.07, -3.07, -2.12, -2.12, -2.24, -1.79, -1.79, -1.34, -0.6, -0.57, -0.71, -0.71, -0.85, -0.99, -0.85, -0.0, 0.45, 1.6, 1.24, 1.2, 2.79, 3.79, 4.29, 4.29, 4.0, 6.26, 5.64, 2.24, -0.0, 0.81, -0.0, -0.0, -0.0, 1.86, 2.91, 5.16, 5.16, 4.92, 3.58, 3.13, 3.13, 3.13, 3.58, 4.41, 4.41, 4.4, 5.09, 5.09, 3.48, 3.14, 4.11, 3.82, 3.32, 3.07, 3.39, 2.91, 2.15, 2.15, 2.15, 1.2, 0.0, -0.57, 0.0, 0.0, 0.57, 0.0, 7.33, 7.6, 7.22, 6.96, 6.96, 6.96, 6.96, 6.97, 6.97, 6.97, 6.71, 6.71, 6.71, 6.97, 6.98, 6.67, 6.62, 6.51, 6.7, 6.7, 6.95, 6.28, 5.4, 3.9, 3.54, 3.99, 3.98, 2.17, 0.0, -2.63, -4.47, -2.68, -4.92, -2.24, -2.12, -1.7, -1.2, -1.2, -1.34, -1.2, -0.8, -0.57, -0.8, -1.27, -1.19, -2.2, -0.71, -0.63, 0.0, 0.6, 0.85, 1.6, 1.99, 1.8, 1.8, 1.27, 0.76, 4.0, 4.34, 0.63, -1.74, -1.13, -0.0, -0.0, -0.0, 0.45, 1.7, 2.24, 5.36, 2.6, 2.6, 3.13, 3.13, 3.51, 3.74, 4.73, 3.82, 4.66, 4.8, 4.4, 3.45, 3.84, 4.66, 4.66, 2.68, 2.5, 2.5, 2.15, 1.9, 2.4, 2.91, 3.2, 2.8, 2.12, 1.26, 0.99, 0.61, 0.0, 7.33, 6.94, 7.22, 6.96, 6.96, 6.96, 6.96, 6.96, 6.7, 6.97, 6.97, 6.71, 6.71, 6.71, 6.98, 6.98, 6.95, 6.87, 7.35, 7.61, 8.0, 8.3, 8.21, 7.98, 8.03, 8.05, 8.05, 7.6, 5.81, 2.68, 0.0, -2.24, -3.13, -3.13, -2.21, -1.4, -0.0, -0.0, -0.0, -0.6, -0.57, -0.0, -0.0, -1.4, -1.27, -2.48, -1.41, -1.4, -1.58, 0.0, 0.0, 1.58, 1.6, 0.89, 0.89, 1.2, 0.76, 2.73, 2.5, 0.95, -0.95, -1.2, -0.95, -0.63, 0.45, 0.0, 0.85, 0.85, 0.6, 0.45, 1.26, 3.07, 4.02, 3.74, 3.49, 3.49, 3.07, 3.83, 3.83, 3.74, 3.82, 4.24, 5.02, 5.02, 4.0, 2.5, 2.5, 1.9, 1.58, 1.86, 2.91, 3.6, 3.45, 2.91, 3.13, 1.86, 0.61, 0.61, 6.94, 6.94, 7.22, 6.96, 6.96, 6.96, 6.96, 6.96, 6.96, 6.7, 6.97, 6.71, 6.71, 6.98, 6.98, 6.98, 6.98, 7.23, 7.44, 7.9, 8.15, 8.51, 8.96, 9.23, 9.37, 9.39, 9.83, 9.37, 8.47, 6.26, 3.13, 0.0, -1.34, -2.4, -2.23, -0.61, -0.61, -0.0, -0.0, -0.0, -0.0, -0.0, -0.0, -0.0, -1.27, -1.41, -2.48, -1.13, -1.4, -0.0, -0.0, 0.45, 0.95, 0.8, 0.6, 0.89, 1.58, 1.49, 1.34, 0.95, -0.0, 1.34, 1.34, 0.89, 0.0, 0.6, 0.65, 0.0, -1.2, -0.45, 0.63, 2.24, 3.13, 3.07, 2.15, 1.84, 2.15, 2.5, 3.07, 3.13, 3.58, 3.58, 3.58, 4.02, 4.41, 3.82, 2.5, 2.15, 1.86, 2.23, 3.07, 3.45, 2.5, 3.09, 3.58, 3.07, 1.2, 1.2, 6.94, 6.94, 6.94, 7.22, 6.96, 6.96, 6.96, 6.96, 6.96, 6.96, 6.97, 6.97, 6.98, 6.98, 6.98, 6.98, 7.3, 7.27, 7.51, 8.0, 8.15, 8.51, 8.96, 9.23, 9.37, 9.83, 10.28, 10.27, 9.82, 8.49, 6.23, 3.53, 0.89, -0.0, -1.2, -1.33, -1.49, -0.76, -0.0, -0.0, -0.0, -0.0, -0.0, -0.0, -0.0, -0.0, -1.13, -0.0, -0.0, -0.0, -0.0, -0.0, -0.0, 1.2, 1.58, 2.68, 3.13, 2.8, 1.4, 1.2, 1.9, 2.4, 2.4, 1.9, 1.58, 0.89, 1.2, 0.0, -1.58, -0.63, 0.0, 0.0, -0.0, 0.45, 0.0, 0.0, 0.53, 1.7, 1.7, 1.49, 1.86, 2.6, 3.13, 3.58, 4.02, 3.53, 2.68, 2.0, 2.4, 3.07, 3.72, 3.14, 2.21, 3.07, 3.82, 3.39, 2.15, 2.15, 6.94, 6.94, 6.94, 7.22, 7.22, 7.22, 7.22, 6.96, 6.96, 6.96, 6.97, 6.97, 6.98, 6.98, 6.7, 6.98, 7.6, 7.59, 7.55, 8.0, 8.28, 8.51, 8.72, 8.79, 9.39, 10.28, 10.73, 10.73, 10.28, 9.39, 7.51, 5.51, 2.91, 0.63, -0.51, -1.16, -1.16, -0.65, -0.0, -0.0, 0.6, -0.0, -0.0, -0.0, -0.0, -0.0, -0.0, -0.0, -0.0, -0.0, -0.0, -0.0, -0.0, -0.0, 1.4, 2.8, 3.2, 2.84, 2.53, 2.8, 2.8, 3.13, 3.13, 2.4, -0.0, -0.6, 0.45, 0.71, 0.0, -0.71, -1.9, -1.86, -0.45, 0.0, -0.6, -1.16, -1.4, -0.63, 0.0, 0.0, 0.45, 1.7, 2.6, 3.39, 3.39, 2.91, 2.91, 2.17, 2.5, 2.79, 3.14, 3.45, 2.53, 2.51, 3.14, 3.07, 2.15, 2.15, 6.94, 6.94, 6.94, 6.94, 7.22, 7.22, 7.22, 6.96, 6.96, 6.96, 6.97, 6.97, 6.98, 6.98, 6.34, 6.42, 6.69, 6.98, 7.51, 7.9, 8.68, 9.2, 8.28, 6.54, 6.55, 8.87, 8.77, 8.36, 7.92, 8.33, 7.4, 5.4, 3.2, 1.34, -0.0, -0.57, -1.11, -0.59, -0.0, -0.0, 0.6, 0.6, 0.95, 1.4, 0.99, -0.0, -0.0, -0.0, -0.0, -0.0, -0.0, -0.0, -0.0, -0.0, 1.27, 2.23, 2.53, 2.53, 3.39, 3.58, 3.58, 3.13, 3.13, -0.0, -0.71, -1.58, 0.0, 1.9, 2.5, 0.8, 0.0, 0.95, 2.68, 3.13, 2.17, 0.0, -1.88, -2.15, -1.2, -0.57, 1.2, 1.88, 2.53, 2.84, 2.79, 2.79, 2.79, 3.07, 2.86, 2.53, 2.53, 3.14, 3.49, 2.48, 2.51, 2.79, 2.79, 2.79, 6.94, 6.94, 6.94, 6.94, 6.94, 7.22, 6.96, 6.96, 6.96, 6.96, 6.97, 6.97, 6.98, 6.98, 6.98, 6.35, 6.35, 6.08, 5.21, 6.06, 8.3, 9.21, 8.65, 7.06, 6.39, 6.7, 6.7, 7.23, 7.6, 7.31, 6.3, 4.6, 2.5, 1.34, 1.24, 0.59, -0.0, -0.0, -0.0, -0.0, 0.65, 0.54, 1.0, 1.4, 1.16, -0.0, -0.0, -0.0, -0.0, -0.0, -0.0, -0.0, -0.0, -0.0, 0.71, 1.24, 3.48, 1.86, 1.79, 3.58, 2.8, 3.13, 1.79, -0.0, -0.8, -1.26, -0.63, 0.89, 3.58, 4.41, 5.31, 8.01, 10.7, 11.62, 8.63, 4.09, 1.4, -1.33, -1.33, 0.0, 0.7, 2.07, 2.51, 2.51, 2.53, 3.07, 3.09, 3.53, 2.91, 2.4, 2.21, 3.16, 3.79, 2.73, 1.76, 2.48, 2.79, 2.79, 6.94, 6.94, 6.94, 6.94, 6.94, 7.22, 6.96, 6.96, 6.96, 6.97, 6.97, 6.97, 6.98, 6.98, 6.98, 6.98, 6.35, 6.35, 5.72, 6.14, 7.59, 8.19, 8.19, 7.86, 7.86, 7.55, 7.44, 6.79, 6.41, 6.1, 5.51, 3.87, 2.63, 1.79, 1.9, 1.13, 1.11, 0.55, -0.0, -0.0, 0.59, 0.61, 0.61, 1.13, 0.59, -0.0, -0.0, -0.0, -0.0, -0.0, -0.0, -0.0, -0.0, -0.0, -0.0, 1.24, 2.21, 1.88, 3.2, 2.4, 1.9, 0.0, -1.34, -2.4, -1.2, -1.2, -0.95, -0.0, 1.49, 3.79, 5.43, 8.55, 11.06, 11.18, 9.6, 6.95, 1.84, -1.33, -2.07, -0.59, 0.7, 1.84, 2.53, 2.91, 3.13, 3.58, 3.39, 3.6, 4.3, 3.98, 3.82, 3.79, 4.43, 3.12, 1.88, 1.88, 1.94, 1.94, 6.94, 6.94, 6.94, 6.94, 6.94, 6.96, 6.96, 6.96, 6.7, 6.97, 6.97, 6.97, 6.97, 6.98, 6.98, 6.7, 6.98, 6.98, 7.26, 7.61, 7.6, 7.27, 6.97, 7.59, 8.38, 8.65, 7.9, 7.48, 6.6, 6.04, 5.78, 4.47, 3.58, 2.63, 2.21, 1.8, 1.76, 1.08, 0.61, 0.55, 0.55, 0.57, 0.59, 0.59, 0.59, 0.59, -0.0, -0.0, -0.0, -0.0, -0.0, -0.0, -0.0, -0.0, -0.0, 1.27, 0.76, 1.49, -0.0, 1.34, -1.2, -1.34, -1.2, -1.2, -1.34, -0.95, -0.95, -0.6, -0.0, 0.8, 1.98, 3.93, 2.5, 2.6, 3.2, 4.87, 5.59, 1.84, -0.53, -1.33, 0.0, 0.59, 1.61, 2.17, 2.68, 3.07, 3.07, 3.09, 4.02, 4.92, 5.2, 5.01, 4.74, 3.43, 1.8, 1.23, 1.23, 1.23, 6.53, 6.53, 6.94, 6.94, 6.96, 6.96, 6.96, 6.96, 6.97, 6.97, 6.97, 6.97, 6.97, 6.98, 6.98, 6.98, 6.98, 6.7, 7.61, 8.53, 8.19, 7.51, 6.87, 7.44, 8.0, 8.82, 8.68, 8.3, 7.69, 7.06, 6.23, 5.36, 4.47, 3.39, 2.79, 2.51, 2.22, 1.73, 1.07, 1.07, 1.19, 1.23, 0.57, 0.59, 0.51, -0.0, -0.0, -0.0, -0.0, -0.0, -0.0, -0.0, -0.0, -0.0, -0.0, -0.0, -0.0, -0.0, -0.0, -1.2, -1.79, -1.79, -1.2, -0.63, -0.95, -0.8, -0.0, -0.0, 0.45, 0.0, 0.45, -0.89, -0.0, -0.0, 0.0, 2.23, 4.87, 5.0, 1.88, 0.0, -0.59, -0.59, 0.0, 0.54, 1.58, 2.4, 2.91, 3.07, 3.72, 4.73, 5.6, 5.38, 3.43, 2.53, 1.24, 1.16, 1.76, 1.76, 6.53, 6.53, 6.94, 6.94, 6.96, 6.96, 6.96, 6.7, 6.97, 6.97, 6.97, 6.97, 6.97, 7.32, 7.32, 6.98, 6.98, 7.6, 7.32, 8.22, 8.45, 8.08, 7.72, 7.35, 7.35, 8.15, 8.28, 8.72, 8.0, 7.87, 7.06, 6.23, 4.92, 3.98, 3.6, 2.84, 2.48, 2.22, 1.73, 1.55, 1.19, 1.23, 0.57, 0.51, -0.0, -0.0, -0.0, -0.0, -0.0, -0.0, -0.0, -0.0, -0.0, -0.0, -0.0, -0.0, -0.0, -0.57, -0.0, -0.0, -0.89, -1.34, -0.89, -0.95, -0.8, -0.76, -0.0, -0.0, -0.0, 0.0, 0.8, -1.34, -0.0, 0.54, -0.0, 1.19, 3.35, 5.44, 5.24, 1.86, 0.0, -1.23, -0.63, 0.0, 0.0, 0.66, 1.8, 2.48, 3.43, 4.11, 4.73, 3.14, 1.24, 0.0, 0.4, 1.88, 2.48, 2.48, 6.29, 6.29, 6.29, 6.7, 6.96, 6.96, 6.7, 6.7, 6.97, 6.97, 6.97, 6.97, 6.97, 7.61, 7.32, 7.32, 7.6, 7.6, 7.6, 7.9, 8.19, 8.15, 8.0, 7.9, 8.15, 8.15, 8.15, 8.4, 8.22, 8.0, 7.4, 6.16, 5.36, 4.44, 3.82, 3.14, 2.84, 2.48, 2.2, 1.73, 1.73, 1.23, 1.11, 0.51, -0.0, -0.0, -0.0, -0.0, -0.0, -0.0, -0.61, -0.0, -0.99, -0.99, -0.99, -0.99, -1.4, -0.6, -0.0, 0.0, 0.45, 0.0, 0.0, -0.6, -0.71, -0.85, -0.0, -0.0, -0.0, 0.95, 1.26, 0.57, 0.89, 0.6, 0.57, 0.45, 1.58, 2.84, 5.24, 2.8, 1.9, 0.0, -1.3, -0.67, 0.0, 0.0, 0.76, 2.11, 2.11, 2.48, 2.15, 2.63, 1.34, 1.34, 1.86, 2.79, 2.84, 2.84, 6.29, 6.29, 6.29, 6.56, 6.96, 6.96, 6.96, 6.7, 6.97, 6.97, 6.97, 6.97, 6.97, 7.33, 7.32, 7.32, 7.6, 7.3, 7.6, 7.9, 8.19, 8.19, 8.38, 8.37, 8.27, 8.15, 8.15, 8.0, 8.0, 7.81, 7.26, 6.47, 5.34, 4.47, 3.87, 3.6, 3.35, 2.86, 2.22, 2.44, 1.76, 1.76, 1.11, 0.59, 0.59, -0.0, -0.0, -0.0, -0.0, -0.0, -0.61, -0.51, -1.13, -1.13, -1.13, -1.4, -1.4, -1.2, -0.0, 0.45, 1.2, 1.6, 1.34, -0.0, -0.0, -0.71, -0.0, -0.0, 0.45, 0.0, 1.58, 1.49, 0.8, 0.45, 0.63, 1.2, 1.79, 3.07, 3.49, 3.83, 3.45, 1.33, 0.0, -0.67, -0.67, 0.0, 0.7, 1.23, 1.13, 0.0, 0.0, 2.24, 2.68, 3.09, 3.2, 3.45, 3.35, 3.35, 6.29, 6.29, 6.29, 6.56, 6.56, 6.56, 6.31, 6.31, 6.97, 6.97, 6.97, 6.97, 6.97, 6.97, 7.32, 7.32, 7.6, 7.3, 7.3, 7.3, 8.19, 8.19, 8.49, 8.65, 8.37, 8.27, 8.15, 8.0, 7.48, 7.31, 7.01, 5.88, 5.57, 4.89, 4.47, 3.87, 3.7, 3.35, 2.84, 2.48, 1.8, 1.27, 1.13, 0.59, 0.59, 0.61, -0.0, -0.0, -0.0, -0.0, -0.61, -0.59, -1.13, -1.13, -0.71, -0.57, -1.9, -2.4, -0.63, 0.0, 0.89, 2.24, 2.24, 1.86, 1.13, -0.0, -0.0, 0.45, 0.0, 0.0, 1.4, 2.3, 0.65, 0.0, 0.45, 0.45, 2.24, 3.07, 3.84, 3.84, 4.46, 3.49, 0.59, -1.23, -2.04, 0.0, 0.7, 0.59, 0.0, -1.24, -0.61, 0.51, 3.07, 3.6, 3.72, 3.72, 3.72, 3.72, 6.29, 6.29, 6.56, 6.56, 6.56, 6.31, 6.31, 6.31, 6.7, 6.97, 6.97, 6.97, 6.97, 6.97, 7.32, 7.32, 7.6, 7.3, 7.3, 7.59, 7.59, 8.19, 8.19, 8.15, 8.08, 8.0, 7.9, 7.61, 6.95, 6.8, 6.1, 5.81, 5.09, 4.77, 4.02, 3.98, 3.87, 3.6, 2.84, 2.23, 1.8, 1.13, 1.13, 0.59, 1.13, 0.61, -0.0, -0.0, -0.0, -0.0, -0.51, -0.59, -0.59, -0.51, -1.16, -0.8, -1.58, -2.68, -1.79, -1.34, 0.0, 1.34, 2.17, 1.86, 1.26, -0.0, -0.0, 0.0, 0.0, 0.0, 0.71, 2.53, 3.16, 0.65, -1.24, -0.63, 0.95, 2.5, 2.53, 3.79, 3.79, 5.01, 3.48, 0.0, -1.27, -0.67, -1.3, -1.84, -1.9, -1.2, -0.66, 0.0, 2.51, 3.16, 3.43, 3.78, 3.78, 3.78, 6.29, 6.29, 6.56, 6.56, 6.31, 6.31, 6.31, 6.31, 6.31, 6.97, 6.97, 6.97, 6.97, 6.97, 7.26, 7.32, 7.6, 7.3, 7.3, 7.59, 7.59, 7.59, 8.19, 8.15, 8.08, 7.73, 7.44, 7.61, 6.95, 6.28, 6.0, 5.31, 5.02, 4.34, 4.02, 3.54, 3.39, 3.2, 2.79, 2.23, 1.84, 1.16, 0.61, 0.71, 0.71, 0.61, -0.0, -0.0, -0.0, -0.0, -0.59, -0.59, -0.61, -0.61, -0.65, -0.71, -1.26, -2.68, -1.79, -1.34, -0.45, 0.63, 1.7, 1.7, 1.2, -0.0, -0.0, 0.0, 0.0, 0.0, 0.0, 3.22, 6.0, 4.12, 0.0, -1.24, -0.57, 0.65, 2.15, 3.84, 3.84, 5.35, 5.49, 3.43, 0.65, -1.33, -4.07, -3.48, -1.8, -0.57, -0.63, 0.0, 0.61, 2.44, 3.15, 3.48, 4.12, 4.12, 6.29, 6.29, 6.56, 6.31, 6.31, 6.31, 6.31, 6.31, 6.31, 6.7, 6.97, 6.97, 6.97, 6.97, 6.97, 6.98, 7.32, 7.3, 7.3, 7.3, 7.59, 7.59, 7.59, 7.59, 7.55, 7.51, 7.44, 7.15, 6.7, 6.28, 6.0, 5.31, 4.4, 3.87, 3.58, 3.58, 3.53, 2.68, 2.21, 1.88, 1.61, 1.16, 0.53, 0.65, 0.65, -0.0, -0.0, -0.0, -0.54, -0.61, -0.61, -0.61, -0.61, -0.65, -0.65, -0.54, -0.57, -1.6, -1.34, -1.34, -0.89, 0.45, 1.34, 0.89, 0.0, 0.0, 0.45, -0.45, -0.45, 0.0, 0.76, 2.53, 5.43, 8.4, 7.03, 2.84, 0.54, 0.0, 0.7, 2.51, 4.46, 5.37, 5.65, 5.29, 3.6, 0.6, -1.84, -2.6, -1.32, -0.71, -0.67, -0.72, 0.0, 1.35, 2.44, 3.12, 3.79, 3.79, 6.29, 6.29, 6.31, 6.31, 6.31, 6.31, 6.31, 6.31, 6.31, 6.31, 6.97, 6.97, 6.97, 6.97, 6.97, 6.98, 7.32, 7.6, 7.3, 7.3, 7.59, 7.27, 7.27, 7.27, 7.55, 7.51, 7.21, 6.79, 6.41, 6.03, 5.75, 5.08, 4.4, 3.87, 3.58, 3.13, 3.07, 2.91, 2.5, 1.61, 1.2, 1.2, 0.54, 0.54, -0.0, -0.0, -0.0, -0.0, -0.0, -0.53, -0.53, -0.65, -0.65, -0.65, -0.65, -0.65, -0.0, -0.0, -0.6, -0.63, -0.45, 0.0, 0.45, 0.0, 0.0, 0.45, 0.0, -0.6, 0.0, 1.74, 2.29, 0.76, 2.3, 6.98, 10.02, 9.6, 6.4, 1.9, 0.61, 1.27, 3.12, 4.07, 4.45, 4.43, 4.17, 3.39, 1.49, 0.0, -0.57, -0.64, -1.36, -1.41, 0.0, 0.67, 1.88, 2.6, 3.38, 3.38, 6.29, 6.29, 6.31, 6.31, 6.31, 6.31, 6.31, 6.31, 6.31, 6.31, 6.97, 6.97, 6.97, 6.71, 6.71, 6.98, 6.98, 7.6, 7.3, 6.98, 6.97, 6.97, 6.97, 6.97, 6.97, 6.95, 6.87, 6.23, 5.09, 5.75, 5.75, 5.08, 4.4, 3.87, 3.53, 3.13, 3.07, 2.4, 1.9, 1.58, 1.24, 0.71, 0.71, 0.57, -0.0, -0.0, -0.0, -0.0, -0.0, -0.54, -0.54, -0.54, -0.54, -0.54, -0.54, -0.65, -0.0, -0.0, -0.0, -0.0, -0.45, 0.0, -0.63, -1.2, -1.2, 0.45, 0.45, 0.0, 0.0, 2.4, 1.6, 0.0, 0.0, 3.35, 7.89, 9.58, 7.6, 3.2, 1.86, 1.88, 3.14, 3.14, 2.53, 3.64, 4.27, 4.6, 4.44, 2.68, 0.63, -0.71, -1.33, -1.11, -0.61, 0.0, 1.16, 2.04, 2.6, 2.6, 5.86, 5.86, 6.31, 6.31, 6.31, 6.31, 6.31, 6.31, 6.31, 6.31, 6.58, 6.58, 6.58, 6.33, 6.71, 6.71, 6.98, 6.98, 6.98, 6.98, 6.97, 6.97, 6.97, 6.67, 6.67, 6.95, 6.32, 6.23, 5.59, 4.46, 5.21, 4.65, 4.4, 3.7, 3.53, 3.13, 2.68, 2.4, 1.86, 1.26, 1.26, 0.8, 0.8, 0.6, -0.0, -0.0, -0.0, -0.0, -0.0, -0.71, -0.71, -0.71, -1.24, -0.71, -0.71, -0.0, -0.0, -0.0, -0.0, -0.0, -0.0, 0.0, -1.34, -0.89, -0.89, -0.45, 0.0, 0.89, 1.58, 1.58, 1.2, 0.45, 0.0, 2.3, 5.6, 7.45, 3.74, 1.7, 1.79, 3.13, 4.02, 4.02, 3.53, 3.53, 5.09, 5.51, 5.09, 4.34, 1.79, 0.0, -0.89, -0.71, -0.59, 0.0, 0.0, 1.3, 1.88, 1.88, 5.64, 5.64, 6.31, 6.31, 6.31, 6.31, 6.31, 6.31, 6.31, 6.31, 6.58, 6.58, 6.33, 6.33, 6.71, 6.71, 6.98, 6.98, 6.98, 6.98, 6.97, 6.97, 6.35, 6.35, 6.35, 6.34, 6.32, 5.69, 5.65, 5.29, 4.65, 4.55, 4.27, 4.11, 3.87, 3.53, 2.68, 2.17, 1.7, 1.6, 0.6, 0.6, 0.6, -0.0, -0.0, -0.0, -0.0, -0.0, -0.57, -0.57, -0.71, -1.24, -1.24, -0.57, -0.8, -0.0, -0.0, -0.0, -0.0, -0.0, -0.0, -0.0, -0.0, 0.89, 0.0, 0.0, 0.0, 0.0, 0.89, 0.89, 0.45, 0.45, 1.0, 4.16, 5.37, 4.93, 2.6, 2.12, 3.45, 5.44, 6.22, 4.92, 4.92, 4.87, 4.73, 5.88, 5.6, 5.6, 3.07, 1.7, 0.0, -0.45, 0.0, 0.0, 0.0, 0.67, 1.3, 1.3, 5.64, 5.64, 5.89, 6.31, 6.31, 6.31, 6.31, 6.31, 6.31, 6.31, 6.31, 6.58, 6.33, 6.33, 6.33, 6.71, 6.71, 6.98, 6.7, 6.98, 6.69, 6.35, 6.35, 6.06, 6.34, 6.34, 6.32, 5.69, 5.65, 5.01, 4.37, 4.37, 4.27, 3.88, 3.7, 3.39, 2.68, 2.24, 1.79, 1.2, 0.63, 0.63, -0.0, 0.45, 0.45, 0.45, -0.0, -0.6, -0.8, -0.57, -1.26, -1.26, -1.26, -0.8, -0.8, -0.0, -0.0, -0.0, -0.0, -0.0, -0.0, -0.0, -0.0, -0.0, 1.79, 1.34, 0.0, 0.0, 0.0, 0.0, 0.0, 0.0, 3.48, 6.39, 7.06, 6.0, 4.92, 6.07, 6.7, 7.71, 7.15, 6.22, 5.2, 5.02, 5.44, 6.3, 6.28, 4.66, 3.78, 2.79, 1.2, 0.0, 0.0, 0.0, 0.0, 0.0, 0.64, 0.64, 5.64, 5.64, 5.89, 6.31, 6.31, 6.31, 6.31, 6.31, 6.31, 6.31, 6.31, 6.58, 6.33, 6.33, 6.33, 6.33, 6.71, 6.98, 6.7, 6.98, 6.35, 6.35, 6.06, 6.34, 6.01, 5.72, 5.71, 5.69, 5.35, 5.01, 4.37, 4.07, 4.0, 3.88, 3.7, 3.39, 2.63, 2.24, 1.34, 0.89, 0.89, 0.45, 0.45, 0.45, 0.0, 0.45, -0.89, -0.6, -0.8, -1.26, -1.26, -1.26, -1.26, -0.8, -0.6, -0.0, -0.0, -0.0, -0.0, -0.0, -0.0, -0.0, -0.0, -0.0, 0.89, 1.79, 0.0, 0.45, -0.45, 0.0, 0.0, 0.0, 2.21, 7.21, 8.63, 7.45, 6.66, 7.71, 8.19, 8.02, 7.57, 5.2, 4.24, 3.82, 4.24, 4.52, 4.93, 4.66, 4.37, 3.72, 2.4, 1.34, 0.63, 0.57, 0.65, 0.59, 0.67, 0.67, 5.64, 5.64, 5.89, 5.89, 6.31, 6.31, 6.31, 6.31, 6.31, 6.31, 6.31, 6.58, 6.33, 6.33, 6.33, 6.33, 6.33, 6.98, 6.7, 6.35, 6.35, 6.35, 5.72, 5.72, 5.72, 5.72, 5.71, 5.08, 5.06, 4.43, 4.37, 4.07, 4.0, 3.64, 3.35, 3.2, 2.6, 1.7, 1.34, 0.89, 0.45, 0.45, 0.45, 0.0, 0.0, 0.89, -0.89, -0.95, -1.26, -1.26, -1.6, -1.6, -1.26, -0.6, -0.6, -0.0, -0.0, -0.0, -0.0, -0.0, -0.0, -0.0, -0.0, 0.0, 0.45, 1.79, 0.0, 0.0, 0.45, 0.0, 0.45, 0.0, 0.45, 5.36, 8.49, 8.8, 7.21, 7.71, 8.4, 7.56, 6.36, 4.3, 3.39, 3.39, 3.6, 4.52, 5.6, 5.05, 4.66, 3.72, 3.32, 2.24, 1.7, 1.58, 1.2, 1.16, 1.33, 0.57, 5.64, 5.64, 5.89, 5.89, 5.89, 5.89, 5.89, 5.89, 6.31, 6.31, 6.31, 6.31, 6.33, 6.33, 6.33, 6.33, 6.33, 6.61, 6.34, 6.35, 6.08, 6.06, 6.01, 5.72, 5.72, 5.44, 5.38, 5.08, 5.06, 4.43, 4.11, 4.07, 3.78, 3.43, 3.35, 3.07, 2.4, 1.7, 1.2, 0.63, 0.63, 0.0, 0.0, 0.0, 0.0, -0.63, -1.34, -1.6, -1.26, -1.2, -1.2, -1.2, -1.2, -0.95, -0.95, -0.95, -0.0, -0.0, -0.0, -0.0, -0.0, -0.0, -0.0, 0.0, 0.45, 1.79, 1.34, 0.0, -0.0, -0.0, 0.0, 0.0, 0.0, 2.68, 8.05, 8.01, 6.44, 7.35, 8.24, 7.59, 5.31, 3.45, 3.6, 3.6, 4.0, 4.66, 5.6, 5.2, 4.0, 3.82, 3.53, 3.07, 2.17, 1.86, 1.2, 1.16, 1.33, 1.33, 5.64, 5.64, 5.89, 5.89, 5.89, 5.89, 5.89, 5.89, 5.89, 6.31, 6.31, 6.31, 6.31, 6.33, 6.33, 6.33, 6.33, 6.33, 6.34, 6.35, 6.08, 5.72, 5.72, 5.72, 5.1, 5.38, 5.1, 5.08, 4.75, 4.43, 4.11, 4.07, 3.48, 3.43, 2.84, 3.07, 2.4, 1.86, 1.26, 0.6, 0.95, 0.0, 0.0, 0.0, 0.0, -0.6, -1.34, -1.2, -1.2, -1.34, -1.34, -1.34, -1.2, -0.95, -0.95, -0.95, -0.95, -0.6, -0.0, -0.0, -0.0, -0.0, -0.0, -0.0, 1.34, 1.79, 0.45, 0.0, -0.0, -0.0, 0.45, 0.0, 0.0, 1.58, 4.47, 6.07, 4.02, 4.74, 6.64, 6.98, 5.31, 4.0, 4.52, 4.24, 3.97, 4.3, 5.64, 5.16, 3.82, 3.97, 3.53, 3.07, 2.4, 1.86, 1.49, 1.4, 1.33, 1.33, 5.64, 5.64, 5.89, 5.89, 5.89, 5.89, 5.89, 5.89, 5.89, 5.89, 6.31, 6.31, 6.31, 6.33, 6.33, 6.33, 6.33, 6.33, 6.34, 6.35, 5.72, 5.72, 5.72, 5.1, 5.38, 5.38, 5.1, 5.08, 4.75, 4.43, 3.83, 3.49, 3.48, 3.16, 2.84, 2.53, 1.9, 1.24, 1.26, 0.6, 0.6, 0.0, 0.0, 0.0, 0.0, -0.63, -1.34, -1.34, -1.34, -1.34, -1.34, -1.34, -1.34, -0.95, -0.95, -0.95, -0.95, -0.6, -0.8, -0.57, -0.0, -0.0, -0.0, -0.0, -0.0, -0.0, 0.89, -0.0, -0.6, -0.0, 0.45, 0.63, 0.0, 0.0, 1.79, 2.6, 2.15, 1.79, 1.88, 3.35, 2.5, 3.07, 4.02, 5.36, 5.81, 5.36, 5.36, 5.32, 4.87, 4.43, 3.97, 3.53, 2.91, 2.23, 1.49, 1.4, 1.16, 1.16, 5.64, 5.64, 5.89, 5.89, 5.89, 5.89, 5.89, 5.89, 5.89, 5.89, 5.89, 6.31, 6.31, 6.07, 6.33, 6.33, 6.33, 6.33, 6.34, 5.98, 5.72, 5.72, 5.36, 5.1, 5.38, 5.1, 5.1, 4.47, 4.47, 4.12, 3.83, 3.49, 3.49, 3.48, 2.84, 2.53, 1.61, 1.24, 0.71, 0.57, 0.57, 0.0, 0.0, 0.0, 0.0, -0.6, -1.34, -1.34, -1.34, -1.34, -1.34, -1.34, -0.89, -0.95, -0.95, -0.95, -0.95, -0.6, -0.8, -0.57, -0.71, -0.54, -0.0, -0.0, -0.0, -0.0, -0.0, -0.0, -0.8, -0.6, 0.0, 0.0, 0.0, 0.0, 0.0, 1.34, 2.4, 2.4, 1.79, 1.2, 1.7, 3.13, 6.22, 8.01, 8.05, 7.6, 6.26, 6.22, 5.77, 5.77, 5.31, 4.24, 3.32, 2.5, 1.2, 1.4, 1.4, 1.4, 5.64, 5.64, 5.89, 5.89, 5.89, 5.89, 5.89, 5.89, 5.89, 5.89, 5.89, 6.31, 6.31, 6.31, 6.33, 6.33, 6.33, 6.08, 5.95, 5.7, 5.72, 5.34, 5.36, 5.1, 5.1, 5.1, 5.1, 4.47, 4.47, 4.12, 4.12, 3.49, 3.49, 2.86, 2.86, 2.23, 1.88, 1.2, 0.54, 0.71, 0.0, 0.0, 0.0, 0.0, 0.0, 0.0, -0.89, -1.34, -1.34, -1.34, -1.34, -0.89, -0.89, -0.63, -1.2, -1.2, -1.2, -1.26, -1.26, -0.99, -0.71, -0.54, -0.65, -0.0, -0.0, -0.0, -0.0, -0.0, -0.57, -0.6, 0.0, 0.0, 0.76, 0.65, 0.71, 1.6, 2.68, 4.41, 5.16, 4.66, 5.43, 7.46, 9.4, 9.28, 8.49, 8.05, 7.12, 6.11, 6.07, 6.07, 5.64, 5.16, 4.0, 2.84, 1.88, 1.2, 1.2, 1.2, 5.89, 5.89, 5.89, 5.89, 5.89, 5.89, 5.89, 5.89, 5.89, 5.89, 5.89, 5.89, 6.31, 6.31, 6.07, 6.33, 6.33, 5.69, 5.95, 5.46, 5.32, 5.34, 5.36, 5.1, 5.1, 4.73, 4.73, 4.47, 4.75, 3.85, 3.84, 3.49, 3.49, 2.86, 2.86, 2.23, 1.61, 1.0, 0.65, 0.54, 0.0, 0.0, 0.0, 0.0, 0.0, 0.0, -0.89, -1.2, -1.6, -1.6, -1.34, -0.89, -0.89, -0.63, -1.2, -1.2, -1.2, -1.26, -1.26, -1.24, -1.24, -0.65, -0.65, -0.65, -0.0, -0.0, -0.0, -0.6, -0.8, -0.95, 0.0, 0.63, 0.71, 1.24, 1.26, 1.34, 2.24, 4.92, 7.11, 8.0, 8.93, 10.45, 10.53, 8.97, 7.57, 6.67, 6.58, 5.64, 5.44, 4.73, 7.31, 3.6, 4.09, 3.49, 1.9, 0.6, 0.6, 0.6, 5.89, 5.89, 5.89, 5.89, 5.89, 5.89, 5.89, 5.89, 5.89, 5.89, 5.89, 5.89, 6.31, 6.31, 6.07, 6.33, 5.92, 5.69, 5.95, 5.7, 5.08, 5.09, 5.36, 5.1, 4.73, 4.73, 4.47, 4.47, 4.75, 4.1, 4.12, 3.47, 3.49, 2.84, 2.22, 1.8, 1.13, 1.16, 0.53, 0.65, 0.0, 0.0, 0.0, 0.0, 0.0, 0.0, -0.95, -1.6, -1.7, -1.6, -1.34, -0.89, -0.89, -0.63, -1.2, -1.2, -1.2, -1.26, -1.26, -1.24, -1.24, -1.2, -1.2, -1.4, -0.54, -0.0, -0.0, -0.0, -0.95, -0.95, 0.45, 0.0, 0.95, 1.2, 0.89, 0.32, 1.34, 3.58, 6.21, 6.44, 7.64, 9.66, 10.15, 8.48, 6.67, 5.36, 5.64, 5.94, 4.4, 5.4, 4.8, 2.91, 2.8, 2.23, 0.63, -0.45, -0.45, -0.45, 5.89, 5.89, 5.89, 5.89, 5.89, 5.89, 5.89, 5.89, 5.89, 5.89, 5.89, 5.89, 5.89, 6.31, 6.07, 5.92, 5.92, 5.69, 5.69, 5.29, 5.08, 5.34, 4.69, 4.71, 4.46, 4.73, 4.47, 4.47, 4.08, 4.1, 3.45, 3.47, 2.82, 2.84, 2.44, 1.8, 1.13, 0.59, 0.61, 0.0, 0.0, 0.0, 0.0, 0.0, 0.0, -0.8, -1.26, -1.26, -1.7, -1.7, -1.2, -0.89, -0.89, -0.95, -1.6, -1.2, -0.95, -0.8, -1.26, -1.24, -1.24, -1.2, -1.4, -1.4, -1.2, -0.0, -0.0, -0.0, -0.0, -0.45, 0.45, 0.0, 0.0, 0.0, 0.0, 0.0, 0.89, 2.24, 4.15, 3.79, 4.74, 7.69, 9.2, 7.06, 4.43, 4.02, 4.24, 4.0, 2.8, 1.34, 1.79, 2.24, 2.17, 1.2, 0.0, -0.63, -0.63, -0.63, 5.89, 5.89, 5.89, 5.89, 5.89, 5.89, 5.89, 5.89, 5.89, 5.89, 5.89, 5.89, 5.89, 5.89, 5.67, 5.67, 5.92, 5.69, 5.04, 5.29, 5.06, 4.66, 4.69, 4.71, 4.46, 4.73, 4.47, 4.08, 4.08, 3.84, 3.45, 3.45, 3.04, 2.84, 2.2, 1.76, 1.11, 0.59, 0.51, 0.0, 0.0, 0.0, 0.0, 0.0, 0.0, -0.57, -1.26, -1.86, -1.86, -1.7, -1.6, -1.34, -1.34, -1.34, -1.6, -1.2, -0.95, -0.6, -0.8, -0.71, -1.24, -1.2, -1.4, -1.88, -1.61, -1.2, -0.0, -0.0, -1.58, -0.89, -0.63, -0.63, -0.45, -0.45, -0.45, 0.0, 0.45, 1.2, 2.21, 2.68, 3.16, 4.74, 4.43, 1.88, 1.2, 1.34, 1.86, 1.58, 1.34, 1.34, 1.34, 1.79, 1.79, 1.2, 0.63, 0.45, 0.45, 0.45, 5.89, 5.89, 5.89, 5.89, 5.89, 5.89, 5.89, 5.89, 5.89, 5.89, 5.89, 5.89, 5.89, 5.89, 5.89, 5.67, 5.92, 5.69, 5.04, 5.29, 5.06, 4.66, 4.69, 4.45, 4.46, 4.46, 4.08, 4.08, 4.08, 3.84, 3.68, 3.45, 3.04, 2.36, 2.2, 1.57, 1.23, 0.57, 0.59, 0.0, 0.0, 0.0, 0.0, 0.0, -0.54, -0.71, -1.24, -1.86, -1.86, -1.86, -1.6, -1.2, -1.34, -1.34, -1.7, -1.7, -1.6, -1.6, -0.8, -0.57, -0.71, -1.2, -1.2, -1.88, -2.5, -1.6, -0.6, -0.0, -0.8, -0.95, -0.89, -0.63, -0.63, -0.63, -0.63, -0.45, 0.0, 0.45, 0.6, 1.24, 1.49, 1.4, -0.0, -1.2, -0.95, -0.45, -1.24, -0.54, 0.6, 2.24, 2.24, 1.7, 1.49, 1.26, 0.57, 0.0, 0.0, 0.0, 5.64, 5.64, 5.89, 5.89, 5.89, 5.89, 5.89, 5.89, 5.64, 5.64, 5.64, 5.89, 5.89, 5.89, 5.89, 5.67, 5.92, 5.69, 5.04, 5.29, 5.06, 4.66, 4.69, 4.45, 4.71, 4.05, 4.08, 4.08, 4.08, 3.42, 3.42, 3.0, 2.8, 2.36, 1.7, 1.73, 1.08, 0.57, 0.51, 0.0, 0.0, 0.0, 0.0, 0.0, -0.65, -0.54, -1.24, -1.58, -1.86, -1.86, -1.26, -1.6, -1.34, -1.79, -2.24, -2.17, -2.12, -1.7, -1.26, -1.26, -0.71, -0.65, -1.2, -1.88, -3.07, -2.12, -1.6, -0.8, -0.71, -0.8, -0.63, -0.45, 0.45, -0.63, -0.63, -0.63, -0.45, 0.0, -0.0, -0.0, 0.71, -0.0, -1.61, -1.88, -0.0, -1.27, -2.15, -1.16, 0.0, 1.61, 3.07, 2.5, 1.24, 0.54, 0.54, 0.0, 0.0, 0.0, 5.64, 5.64, 5.64, 5.89, 5.89, 5.44, 5.44, 5.2, 5.64, 5.64, 5.64, 5.64, 5.89, 5.89, 5.89, 5.67, 5.92, 5.26, 5.04, 5.29, 4.63, 4.42, 4.44, 4.45, 4.03, 4.05, 4.05, 4.08, 4.08, 3.42, 3.42, 3.0, 2.8, 2.36, 1.7, 1.16, 1.19, 0.55, 0.57, 0.0, 0.0, 0.0, 0.0, 0.0, -0.53, -0.65, -1.2, -1.49, -1.58, -1.86, -1.58, -1.6, -1.2, -1.34, -2.24, -2.6, -2.6, -2.6, -1.86, -1.58, -1.24, -1.0, -1.2, -1.88, -2.68, -3.39, -2.12, -1.26, -0.8, -0.8, -0.6, -0.0, -0.0, -0.0, -0.0, 0.0, 0.0, -0.45, -0.63, -0.0, -0.0, -0.57, -2.5, -1.9, 1.86, 0.45, -1.26, -1.16, -0.57, 0.55, 2.0, 2.51, 1.16, 0.0, 0.0, 0.0, 0.0, 0.0, 5.64, 5.64, 5.64, 5.89, 5.44, 5.44, 5.44, 5.2, 5.64, 5.64, 5.64, 5.64, 5.64, 5.89, 5.89, 5.67, 5.92, 5.26, 5.04, 5.29, 4.63, 4.63, 4.44, 4.24, 4.03, 4.05, 4.05, 3.83, 3.4, 3.42, 3.42, 2.77, 2.8, 2.16, 1.84, 1.16, 1.07, 0.55, 0.63, 0.0, 0.0, 0.0, 0.0, 0.0, -0.61, -0.65, -1.2, -1.2, -1.49, -1.24, -1.58, -1.6, -1.2, -0.89, -1.34, -2.12, -2.4, -2.4, -2.4, -1.86, -1.24, -1.24, -1.24, -1.61, -2.5, -3.39, -2.24, -2.12, -1.6, -1.2, -0.6, -0.0, -0.0, 0.6, -0.0, 0.45, 0.45, 0.0, -0.0, -0.6, -0.6, -1.86, -3.32, 0.6, 2.63, 2.17, 0.0, -1.2, -0.59, 0.0, 1.26, 1.94, 0.59, 0.0, -0.53, -0.65, -0.65, -0.65, 5.2, 5.2, 5.89, 5.44, 5.44, 5.44, 5.44, 5.2, 5.2, 5.64, 5.64, 5.64, 5.64, 5.89, 5.89, 5.67, 5.23, 5.26, 5.04, 5.04, 4.63, 4.63, 4.0, 4.0, 4.03, 4.03, 4.05, 4.05, 3.4, 3.64, 3.42, 2.77, 2.32, 2.32, 1.67, 1.14, 1.16, 0.61, 0.55, 0.0, 0.0, 0.0, 0.0, 0.0, 0.0, -0.53, -1.2, -1.2, -1.49, -1.24, -1.26, -1.6, -1.34, -0.89, -0.89, -1.2, -1.86, -2.4, -2.8, -2.4, -1.86, -1.58, -1.24, -1.24, -2.15, -3.39, -3.98, -4.02, -2.24, -1.7, -0.8, -0.45, 0.0, -0.0, -0.0, -0.0, 0.45, -0.0, -0.0, -0.57, -1.86, -3.32, -1.86, 0.6, 2.4, 2.0, 0.0, -0.99, -0.61, 0.0, 0.0, 0.63, 0.0, -0.61, -1.16, -1.16, -1.16, -1.16, 5.44, 5.44, 5.44, 5.44, 5.44, 5.44, 5.44, 5.2, 5.2, 5.64, 5.64, 5.64, 5.64, 5.64, 5.89, 5.67, 5.23, 5.26, 5.04, 4.6, 4.63, 4.63, 4.42, 4.0, 4.03, 4.03, 4.05, 3.6, 3.4, 3.4, 2.96, 2.77, 2.14, 2.32, 1.8, 1.67, 1.16, 0.54, 0.61, 0.61, 0.0, 0.0, 0.0, 0.0, 0.0, -0.61, -0.53, -1.2, -1.24, -1.24, -1.26, -1.6, -1.34, -0.89, 0.89, -0.0, -0.8, -1.86, -2.4, -2.4, -1.86, -1.26, -1.26, -1.24, -1.86, -2.4, -3.53, -3.98, -2.68, -2.24, -1.34, -0.89, -0.89, -0.45, -0.0, -0.0, -0.0, -0.0, -0.0, -0.6, -2.4, -3.97, -2.8, -0.0, 1.86, 1.86, -0.0, -1.26, -1.2, -0.59, 0.0, 0.0, -1.24, -1.88, -1.61, -1.84, -1.84, -1.84, 5.44, 5.44, 5.44, 5.44, 5.44, 5.23, 5.23, 5.2, 5.2, 5.64, 5.64, 5.64, 5.64, 5.64, 5.89, 5.67, 5.23, 5.26, 5.04, 4.6, 4.63, 4.63, 3.97, 4.0, 4.03, 4.03, 3.37, 3.6, 3.4, 3.4, 2.96, 2.77, 2.29, 2.14, 1.65, 1.67, 1.14, 1.16, 0.54, 0.54, 0.0, 0.0, 0.0, 0.0, 0.0, -0.51, -0.61, -0.65, -1.0, -1.24, -1.26, -1.2, -1.34, -0.89, -0.89, -0.0, -0.6, -1.26, -2.4, -2.6, -2.12, -1.7, -1.26, -1.58, -1.58, -1.86, -2.6, -3.53, -4.44, -2.68, -2.24, -1.79, -0.89, -0.89, -0.63, -0.0, -0.0, -0.0, -0.0, -0.63, -2.4, -5.32, -3.53, -1.26, 0.95, 2.12, -0.0, -1.34, -1.86, -1.2, -1.88, -2.15, -1.86, -1.9, -2.15, -1.88, -1.88, -1.88, 5.44, 5.44, 5.44, 5.44, 5.23, 5.23, 5.23, 5.2, 5.2, 5.2, 5.64, 5.64, 5.64, 5.64, 5.89, 5.23, 5.23, 5.26, 5.04, 4.6, 4.63, 4.63, 3.97, 4.0, 4.0, 4.03, 3.37, 3.37, 3.4, 3.4, 2.75, 2.96, 2.29, 2.29, 1.65, 1.8, 1.14, 1.05, 0.59, 0.59, 0.59, 0.0, 0.0, 0.0, 0.0, 0.0, -0.61, -0.53, -0.65, -1.24, -0.8, -1.34, -1.34, -0.89, -0.89, -0.0, -0.0, -0.6, -1.86, -2.17, -2.12, -1.7, -1.26, -1.58, -1.58, -1.58, -1.86, -2.63, -4.02, -2.68, -2.24, -1.79, -1.34, -0.8, -0.6, -0.6, -0.6, -0.0, -0.45, -0.89, -3.53, -5.36, -4.02, -2.24, 0.0, 1.79, 1.34, -0.63, -1.79, -2.6, -2.91, -2.91, -2.0, -1.24, -1.61, -1.61, -1.61, -1.61, 5.44, 5.44, 5.44, 5.23, 5.23, 5.23, 5.23, 5.44, 5.2, 5.2, 5.64, 5.86, 5.64, 5.64, 5.44, 5.23, 5.23, 5.26, 4.6, 4.6, 4.4, 4.63, 3.97, 4.0, 4.0, 4.03, 3.37, 3.37, 3.6, 3.4, 2.92, 2.75, 2.44, 2.29, 1.76, 1.65, 1.67, 1.14, 1.14, 0.53, 0.53, 0.59, 0.0, 0.0, 0.0, 0.0, 0.0, -0.53, -0.65, -0.71, -0.8, -0.63, -0.89, -0.89, -0.89, -0.0, -0.0, -0.0, -1.26, -1.86, -1.86, -1.86, -1.86, -1.58, -1.58, -1.58, -1.26, -1.7, -2.63, -2.24, -2.24, -1.79, -1.34, -0.89, -0.63, -0.63, -0.0, -0.0, -0.45, 0.45, -2.17, -4.47, -4.47, -2.63, 0.0, 1.7, 2.24, 0.45, -1.7, -2.68, -3.07, -2.91, -1.9, -1.24, -1.24, -0.99, -0.99, -0.99, 5.23, 5.23, 5.23, 5.23, 5.23, 5.23, 5.23, 5.44, 5.2, 5.2, 5.64, 5.86, 5.64, 5.64, 5.44, 5.23, 5.02, 5.26, 4.6, 4.6, 4.4, 4.63, 3.97, 3.97, 4.0, 4.03, 3.56, 3.37, 3.37, 3.6, 2.92, 2.75, 2.26, 2.29, 2.29, 1.65, 1.8, 1.14, 1.14, 1.14, 0.58, 0.53, 0.59, 0.0, 0.0, 0.0, 0.0, 0.0, 0.0, -0.71, -0.57, -0.63, -0.89, -0.89, -0.89, -0.63, -0.0, -0.0, -0.95, -1.26, -1.86, -1.86, -1.58, -1.58, -1.58, -1.58, -1.26, -0.8, -1.6, -2.24, -2.68, -1.79, -1.34, -0.89, -0.45, -0.45, -0.45, -0.0, 0.45, 0.45, -0.95, -3.58, -4.43, -2.91, -0.57, 0.99, 2.0, 1.34, -0.45, -1.79, -2.6, -2.15, -1.9, -0.57, 0.0, 0.63, 0.63, 0.63, 5.23, 5.23, 5.23, 5.23, 5.23, 5.23, 5.23, 5.44, 5.2, 5.2, 5.2, 5.86, 5.64, 5.2, 5.23, 5.23, 5.02, 5.26, 4.6, 4.6, 4.4, 4.16, 3.97, 3.97, 4.0, 3.8, 3.56, 3.37, 3.37, 3.37, 2.73, 2.92, 2.26, 2.26, 2.29, 1.65, 1.8, 1.23, 1.14, 1.14, 1.14, 1.14, 0.59, 0.54, 0.55, 0.0, 0.0, 0.0, 0.0, 0.0, 0.0, 0.0, 0.45, -0.89, -0.89, -0.89, -0.0, -0.0, -0.0, -0.6, -1.26, -1.24, -1.24, -1.24, -1.58, -1.58, -1.58, -1.26, -0.8, -1.6, -2.24, -1.34, -0.89, 1.34, 0.45, -0.45, -0.0, -0.0, -0.0, -0.0, -0.0, -2.68, -3.97, -3.07, -0.71, 1.24, 2.4, 2.12, 0.89, -0.45, -1.26, -1.26, -0.6, 0.6, 1.7, 2.68, 2.68, 2.68, 5.23, 5.23, 5.23, 5.23, 5.23, 5.23, 5.23, 5.23, 5.2, 5.2, 5.2, 5.64, 5.2, 5.2, 5.23, 5.23, 5.02, 4.8, 4.6, 4.6, 4.6, 4.16, 4.16, 3.97, 4.0, 4.0, 3.35, 3.56, 3.37, 3.37, 3.37, 2.92, 2.75, 2.26, 2.29, 1.76, 1.65, 1.65, 1.12, 1.23, 1.14, 1.14, 1.14, 1.16, 0.61, 0.55, 0.51, 0.0, 0.0, 0.0, 0.0, 0.0, 0.45, 0.45, -0.45, -0.45, 0.45, 0.45, 0.45, -0.0, -0.8, -1.24, -1.24, -1.24, -1.9, -1.9, -1.24, -1.26, -1.26, -1.2, -1.34, -1.34, -1.34, -1.26, -0.63, -0.63, -0.0, -0.0, -0.0, -0.63, -0.89, -1.34, -3.07, -2.68, -1.0, 0.71, 1.86, 2.17, 2.24, 2.24, 2.24, 1.79, 1.79, 2.24, 3.13, 3.58, 3.58, 3.58, 5.23, 5.23, 5.23, 5.23, 5.23, 5.23, 5.23, 5.23, 5.2, 5.2, 5.2, 5.64, 5.2, 5.2, 5.23, 5.23, 5.02, 4.8, 4.6, 4.6, 4.6, 4.16, 4.16, 3.97, 4.0, 4.0, 3.35, 3.56, 3.37, 3.37, 3.37, 2.92, 2.75, 2.26, 2.29, 1.76, 1.65, 1.65, 1.12, 1.23, 1.14, 1.14, 1.14, 1.16, 0.61, 0.55, 0.51, 0.0, 0.0, 0.0, 0.0, 0.0, 0.45, 0.45, -0.45, -0.45, 0.45, 0.45, 0.45, -0.0, -0.8, -1.24, -1.24, -1.24, -1.9, -1.9, -1.24, -1.26, -1.26, -1.2, -1.34, -1.34, -1.34, -1.26, -0.63, -0.63, -0.0, -0.0, -0.0, -0.63, -0.89, -0.89, -0.89, -1.26, -0.57, 0.8, 2.12, 2.68, 3.53, 4.24, 5.44, 5.44, 4.73, 3.82, 3.97, 3.97, 3.97, 3.97]}, {"header": {"dx": 0.06612293990616946, "dy": 0.0552356325346848, "nx": 98, "ny": 59, "la1": 35.046912555036876, "la2": 31.78801023549047, "lo1": -121.43107172385933, "lo2": -114.95102361305473, "refTime": "2026041808", "parameterCategory": 1, "parameterNumber": 3}, "data": [-10.8, -10.59, -10.59, -10.23, -9.94, -9.37, -8.38, -8.0, -6.79, -5.59, -4.29, -3.14, -1.2, -0.45, 0.0, 0.0, -0.0, -0.8, -1.26, -1.26, -0.95, 0.0, 0.0, 0.0, 0.0, 0.0, 0.0, 0.61, 1.84, 3.16, 3.48, 3.49, 2.53, 2.5, 1.61, 0.53, 0.0, 0.0, 0.0, -0.7, -0.59, -0.7, -0.98, -2.16, -3.2, -4.5, -6.09, -6.09, -6.97, -5.38, -1.6, 0.99, 2.21, 2.53, 3.22, 3.83, 4.46, 4.11, 3.72, 3.22, 1.88, 1.7, 1.79, 2.12, 1.86, 1.9, 2.07, 2.2, 2.11, 2.35, 2.26, 1.63, 1.47, 0.66, 0.7, 1.55, 1.55, 1.36, 0.69, 0.59, 0.65, 0.54, 1.2, 0.6, -1.34, -1.58, -2.15, -2.91, -3.53, -4.02, -4.47, -4.47, -4.47, -4.02, -4.47, -4.43, -4.3, -4.11, -10.59, -10.59, -10.23, -10.23, -9.94, -9.59, -8.94, -8.08, -7.09, -6.51, -4.94, -2.5, -1.86, -0.95, 0.0, 0.0, 0.0, -0.63, -1.26, -1.86, -1.6, -1.34, -0.63, 0.0, 0.0, 0.0, 0.0, 0.65, 1.61, 2.5, 3.07, 2.5, 1.86, 1.49, 1.24, 0.65, 0.0, 0.0, -0.66, -0.59, -1.49, -1.83, -3.2, -5.49, -7.08, -8.46, -8.37, -7.73, -6.24, -1.4, 1.24, 2.5, 2.41, 2.79, 3.14, 4.22, 4.46, 4.01, 3.64, 3.11, 3.07, 3.58, 3.45, 3.45, 2.5, 2.53, 2.41, 2.53, 2.4, 2.29, 2.35, 1.6, 0.73, 0.73, 0.61, 0.79, 1.35, 1.36, 0.69, 0.59, 0.65, 0.54, 1.2, 0.6, -1.34, -1.58, -2.15, -2.91, -3.53, -4.02, -4.47, -4.47, -4.47, -4.02, -4.47, -4.43, -4.3, -4.11, -10.59, -10.23, -10.23, -9.94, -9.94, -9.59, -8.94, -8.65, -8.0, -6.79, -5.59, -4.65, -2.5, -1.58, -0.57, 0.0, 0.0, -0.89, -1.7, -2.12, -2.4, -2.6, -2.24, -1.6, -0.71, 0.0, 0.0, 0.65, 1.24, 1.7, 1.7, 0.89, 0.0, 0.0, 0.0, 0.0, 0.0, 0.0, -0.73, -1.55, -2.8, -4.87, -6.79, -8.16, -8.46, -8.53, -6.79, -4.56, -0.61, 1.49, 2.21, 2.07, 2.3, 3.16, 3.72, 3.84, 3.79, 4.01, 3.9, 3.11, 2.98, 3.84, 4.8, 4.84, 4.09, 3.84, 3.79, 4.01, 3.9, 3.9, 3.55, 3.0, 1.6, 0.66, 0.0, 0.0, 0.66, 1.4, 0.67, 0.0, 0.0, 0.0, 0.54, 0.63, -0.0, -0.65, -1.2, -1.9, -3.07, -4.02, -4.87, -5.36, -4.92, -4.47, -4.47, -4.47, -3.98, -3.82, -10.51, -10.51, -10.3, -9.94, -9.59, -9.66, -9.3, -8.65, -8.37, -7.35, -6.51, -5.49, -2.86, -2.15, -1.24, -0.57, -0.6, -0.95, -1.79, -2.4, -1.9, -1.86, -2.12, -2.24, -1.7, -0.6, 0.0, 0.71, 0.57, 0.63, 0.0, -1.2, -2.23, -1.6, -1.34, -1.24, -1.4, -1.83, -3.0, -4.56, -5.86, -7.82, -8.53, -7.18, -5.21, -3.2, -1.6, 0.0, 0.7, 2.3, 2.0, 2.3, 2.3, 3.16, 3.84, 3.79, 3.72, 3.64, 3.55, 3.11, 3.35, 4.8, 5.34, 5.34, 5.43, 5.46, 5.46, 5.06, 5.69, 5.64, 5.21, 3.69, 2.26, 1.3, 0.0, 0.0, -0.61, 0.0, 0.0, 0.0, -0.61, -0.53, 0.0, 0.0, -0.0, -0.0, -0.0, -1.26, -3.13, -4.3, -5.64, -5.32, -4.92, -4.87, -4.47, -4.02, -4.02, -3.53, -10.51, -10.51, -9.94, -9.94, -9.59, -9.66, -9.3, -9.21, -8.29, -7.64, -6.79, -5.86, -3.22, -2.15, -1.9, -1.58, -1.24, -1.26, -1.79, -2.5, -2.21, -1.49, -1.26, -1.26, -1.26, -1.34, -0.45, 0.0, 0.0, 0.0, 0.0, -1.7, -3.45, -4.93, -4.02, -4.57, -4.29, -5.37, -7.02, -7.64, -7.97, -6.95, -4.56, -2.11, 0.0, 0.0, 0.0, 0.0, 0.7, 1.55, 1.41, 2.3, 2.07, 3.16, 3.79, 3.72, 2.88, 3.11, 3.79, 3.0, 2.79, 4.24, 5.16, 6.07, 6.28, 6.07, 5.43, 5.09, 5.43, 5.69, 4.46, 3.15, 2.75, 2.26, 0.73, 0.0, -1.2, -1.27, -0.74, -0.63, -1.2, -1.2, -0.61, 0.0, 0.0, -0.57, -1.2, -2.24, -3.82, -4.93, -4.93, -4.3, -4.47, -4.47, -3.82, -3.53, -3.13, -3.53, -10.51, -10.51, -9.94, -9.94, -9.59, -9.3, -9.3, -9.21, -8.65, -8.0, -7.35, -6.15, -3.22, -1.9, -1.9, -1.9, -2.15, -2.23, -2.63, -3.53, -3.83, -3.14, -2.21, -1.24, -1.58, -1.86, -2.12, -1.79, -1.79, -0.63, 0.0, 0.0, -2.24, -6.21, -7.6, -7.56, -6.79, -7.07, -7.64, -8.06, -7.07, -5.24, -2.3, -0.7, -0.78, -0.71, -0.79, 0.0, 0.7, 0.79, 1.33, 1.33, 2.07, 3.16, 2.79, 2.98, 2.88, 2.98, 3.0, 2.9, 2.84, 4.02, 5.36, 6.07, 5.86, 6.07, 5.43, 4.43, 3.79, 3.11, 2.12, 1.55, 1.55, 1.49, 1.55, 0.72, 0.0, -1.33, -0.59, 0.0, -0.54, -1.9, -1.84, -1.61, -1.7, -2.68, -3.58, -3.82, -4.4, -4.93, -4.3, -4.3, -3.97, -3.07, -2.5, -2.63, -2.68, -2.91, -10.51, -10.15, -9.94, -9.59, -9.86, -9.3, -9.3, -9.21, -8.65, -8.0, -7.35, -6.7, -3.49, -1.9, -3.16, -2.23, -2.4, -2.86, -3.45, -4.02, -3.87, -4.4, -5.05, -4.46, -3.6, -3.2, -3.6, -3.47, -3.13, -2.12, -0.0, 0.0, -0.63, -2.6, -6.22, -7.12, -7.45, -6.99, -6.18, -5.46, -5.37, -5.94, -6.0, -6.18, -4.71, -1.41, 0.0, 0.73, 1.55, 1.03, 1.05, 1.16, 2.41, 2.79, 2.3, 2.2, 2.2, 2.2, 1.47, 1.6, 1.9, 4.02, 4.47, 4.41, 4.24, 4.84, 4.74, 2.88, 1.55, 0.76, 0.0, 0.0, 0.0, 0.0, 0.0, 0.0, 0.0, 0.0, 0.61, 0.0, 0.0, -2.53, -3.48, -3.49, -3.07, -3.58, -4.47, -5.31, -5.64, -5.64, -6.11, -5.33, -3.58, -1.24, -0.99, -1.79, -2.63, -3.32, -10.51, -10.15, -9.94, -9.59, -9.86, -9.3, -8.94, -9.21, -8.65, -8.55, -7.9, -7.48, -4.46, -2.86, -3.79, -1.9, -2.5, -3.22, -3.49, -2.53, -1.58, -2.12, -3.13, -4.73, -6.54, -6.36, -6.36, -6.36, -4.6, -2.53, -1.49, -1.6, -2.24, -2.6, -4.93, -6.55, -7.12, -6.28, -5.59, -4.43, -2.23, -2.6, -4.34, -4.0, -1.26, 0.63, 1.9, 1.49, 2.11, 1.03, 0.61, 1.4, 2.07, 3.07, 2.73, 2.2, 2.4, 2.2, 1.6, 1.41, 1.24, 2.68, 2.68, 3.58, 3.47, 2.21, 2.88, 1.52, 0.0, -0.7, -0.76, -0.76, -1.41, -1.55, -1.55, -1.45, 0.0, 0.7, 0.7, 0.0, 0.0, -2.6, -4.74, -5.72, -4.27, -3.87, -3.98, -3.82, -4.3, -4.73, -5.33, -4.3, -3.14, -1.2, -0.63, -1.7, -2.5, -3.07, -10.51, -9.94, -9.94, -9.59, -9.86, -9.3, -8.94, -9.21, -8.65, -8.55, -8.43, -8.28, -6.8, -6.7, -4.8, -3.74, -3.83, -3.83, -2.53, -1.4, -0.65, 0.0, 0.0, -2.5, -4.02, -4.38, -4.15, -4.98, -4.47, -3.93, -4.57, -6.17, -6.26, -6.17, -5.34, -4.8, -6.17, -6.36, -4.0, -1.26, 0.0, 0.0, 0.0, 0.0, 1.2, 1.79, 1.6, 1.49, 2.07, 2.3, 2.99, 2.84, 3.07, 2.98, 3.22, 2.88, 3.11, 2.35, 2.2, 1.6, 1.33, 2.12, 2.24, 2.24, 1.6, 1.74, 1.6, 0.74, 0.0, -1.66, -1.49, -1.47, -2.35, -2.06, -1.98, -1.35, -0.66, 0.0, 0.0, 0.0, 0.0, -1.23, -3.12, -5.38, -4.37, -3.07, -1.79, -0.89, -1.27, -3.13, -3.39, -3.16, -2.48, -2.21, -1.79, -1.58, -2.21, -3.07, -10.15, -9.94, -9.94, -9.86, -9.86, -9.3, -8.94, -9.21, -8.65, -8.93, -8.55, -9.1, -8.27, -8.51, -7.71, -7.71, -8.14, -8.33, -7.52, -6.17, -4.38, -3.2, -2.41, -2.41, -3.2, -3.58, -3.2, -3.48, -5.06, -6.36, -7.15, -7.15, -5.81, -5.36, -4.92, -4.82, -4.98, -2.5, -0.89, 0.0, 0.63, 0.63, 1.34, 1.2, 1.26, 1.6, 1.34, 1.6, 1.9, 2.86, 3.49, 3.48, 2.98, 2.98, 2.88, 3.11, 3.0, 2.26, 1.45, 1.63, 0.7, 2.53, 4.8, 2.8, 2.23, 1.2, 1.47, 0.74, 0.0, -1.2, -2.15, -2.88, -2.72, -2.72, -2.04, -2.0, -2.07, -2.2, -1.98, -1.4, -0.67, 0.0, -1.3, -3.12, -3.79, -1.88, 0.0, 0.95, -0.0, -1.61, -2.51, -2.84, -3.14, -3.07, -2.68, -2.91, -3.07, -3.45, -10.15, -9.94, -9.94, -9.86, -9.86, -9.3, -9.3, -9.21, -8.65, -8.65, -9.1, -9.21, -8.84, -8.82, -7.35, -8.14, -9.06, -10.6, -11.11, -11.57, -11.15, -10.25, -9.06, -7.21, -6.36, -3.58, -3.2, -2.53, -3.22, -5.29, -4.02, -2.68, -1.7, -2.24, -3.13, -3.9, -2.53, 0.0, -0.0, -0.0, 0.0, 0.0, 0.45, 1.79, 2.4, 2.24, 2.68, 2.24, 2.17, 2.6, 2.5, 2.15, 2.0, 1.47, 2.11, 2.29, 1.45, 0.79, 0.0, 0.0, 0.73, 3.49, 4.4, 4.24, 4.24, 3.16, 2.4, 2.29, 0.7, -0.54, -2.21, -3.15, -2.88, -2.44, -2.0, -1.41, -2.07, -2.79, -3.72, -3.55, -2.66, -1.28, -0.64, -1.94, -2.48, -1.13, 0.0, 0.0, -0.0, -1.24, -3.14, -3.6, -3.6, -3.6, -3.53, -3.53, -3.39, -3.6, -10.15, -9.94, -10.23, -9.86, -9.86, -9.3, -9.3, -8.94, -9.21, -9.21, -9.21, -9.21, -9.21, -8.65, -7.21, -6.44, -6.41, -7.81, -9.39, -10.5, -10.22, -8.87, -8.42, -7.98, -4.92, -4.47, -2.98, -0.99, -0.61, -2.15, -2.21, -0.0, 0.71, -0.0, -0.63, -1.34, -0.89, -0.0, -0.0, -0.63, 0.0, 0.89, 1.34, 2.68, 3.82, 3.07, 3.13, 2.68, 1.6, 0.95, 0.0, 0.0, 0.0, 0.0, 0.0, 0.0, 0.0, 0.0, -0.71, 0.0, 1.88, 4.8, 5.59, 5.31, 3.97, 2.84, 3.22, 2.47, 1.47, 0.0, -1.16, -1.33, -1.49, -0.76, -0.61, -0.73, -1.49, -2.15, -4.07, -4.71, -3.72, -1.94, -0.63, -0.63, -1.27, -0.59, -0.59, -0.53, -0.99, -1.2, -2.68, -3.53, -3.2, -3.2, -3.53, -3.58, -3.97, -3.87, -10.15, -9.94, -10.23, -9.86, -9.86, -9.86, -9.3, -9.3, -8.94, -9.21, -9.21, -9.21, -8.94, -8.94, -7.81, -6.32, -5.08, -4.75, -5.65, -6.7, -6.56, -5.6, -5.09, -2.97, -2.0, -2.4, -1.79, -0.0, 0.54, -0.0, -0.0, -0.0, 0.61, 0.61, 0.71, 0.71, -0.0, -0.0, -0.0, -0.0, 1.2, 1.7, 2.12, 2.12, 2.54, 2.97, 2.54, 1.34, 0.0, -0.8, -1.86, -2.4, -3.49, -3.79, -3.22, -3.22, -2.0, 0.0, -1.41, 0.0, 2.68, 4.85, 5.36, 4.92, 2.68, 1.24, 1.16, 1.47, 1.47, 0.0, 0.0, 0.0, 0.0, 0.0, 0.0, -0.73, -0.73, -2.2, -3.64, -3.64, -3.48, -2.51, -1.76, -1.27, -1.33, -0.61, -1.13, -1.16, -1.61, -1.61, -1.61, -2.4, -1.79, -1.7, -2.68, -3.13, -3.98, -4.02, -10.15, -9.94, -10.23, -9.86, -9.86, -9.86, -9.86, -9.3, -9.3, -9.3, -8.94, -8.94, -8.94, -9.3, -8.73, -7.23, -6.01, -4.73, -4.46, -4.46, -4.05, -3.42, -2.16, -0.98, -0.51, -0.5, -0.57, -0.54, 0.0, 0.53, -0.0, -0.0, -0.0, -0.0, 0.71, 0.57, 0.6, 0.6, -0.0, 0.6, 1.6, 1.7, 1.6, 3.82, 4.77, 4.4, 2.12, 0.63, 0.0, -1.2, -2.54, -3.2, -4.98, -3.6, -3.6, -3.82, -3.04, -2.0, -1.08, 0.63, 2.6, 3.39, 4.02, 2.68, 1.34, 0.0, -0.57, 0.0, 0.0, 0.65, 0.65, 0.0, 0.0, -0.7, -1.49, -1.35, -1.27, -1.55, -2.4, -2.2, -2.07, -3.07, -2.66, -2.66, -1.61, -1.88, -1.88, -1.61, -1.9, -1.2, -1.16, -1.6, -1.4, -0.71, -1.26, -1.49, -3.07, -4.02, -10.15, -10.41, -10.23, -9.86, -9.86, -9.86, -9.86, -9.86, -9.5, -9.3, -9.3, -8.94, -8.94, -8.94, -8.73, -8.15, -6.95, -5.72, -5.09, -4.69, -4.0, -3.32, -2.19, -1.06, -0.57, 0.0, 0.0, 0.0, 0.0, 0.0, 0.0, -0.0, -0.0, -0.0, 2.21, 2.8, 3.13, 1.34, 1.79, 1.2, 1.7, 3.13, 2.68, 2.8, 3.82, 3.72, 4.24, 2.8, 1.58, 0.0, -0.89, -1.58, -0.8, 0.0, 0.0, -0.6, -3.04, -4.09, -1.88, 0.95, 0.95, 0.6, 0.95, 0.63, 0.0, -1.34, -2.54, -2.54, -1.2, 0.0, 1.26, 0.61, 0.0, -1.49, -2.79, -2.79, -1.84, -2.3, -2.3, -1.49, -1.27, -1.41, -1.88, -1.88, -2.0, -1.88, -1.88, -1.9, -1.58, -1.24, -1.16, -1.8, -2.07, -1.16, 0.0, -1.24, -3.07, -3.07, -10.41, -10.41, -10.23, -9.86, -9.86, -9.86, -9.86, -9.86, -9.86, -9.5, -9.3, -8.94, -8.94, -8.73, -8.73, -8.73, -8.15, -6.67, -5.72, -5.08, -4.66, -3.97, -2.8, -1.73, -0.55, 0.0, 0.0, 0.55, 0.56, 0.0, 0.0, 0.0, -0.0, 1.2, 3.35, 3.07, 3.07, 2.68, 3.13, 2.68, 1.79, 1.79, 3.13, 4.02, 3.82, 4.24, 3.72, 3.39, 2.8, 2.68, 1.34, 0.0, 0.95, 1.6, 1.2, 0.0, -1.58, -2.23, 0.0, 0.95, 0.89, 0.0, 0.0, 0.0, 0.0, -1.2, -2.6, -2.68, -0.6, -0.0, 0.63, 0.0, 0.0, -0.61, -2.86, -3.07, -2.86, -1.88, -0.61, 0.0, 0.0, 0.0, 0.0, 0.0, -0.73, -1.27, -1.88, -1.61, -1.24, -1.49, -1.84, -2.07, -1.88, -0.51, 0.0, -0.61, -2.4, -2.4, -10.41, -10.41, -10.41, -10.23, -9.86, -9.86, -9.86, -9.86, -9.86, -9.86, -9.3, -9.3, -8.73, -8.73, -8.73, -8.73, -7.86, -7.27, -6.35, -5.72, -4.66, -3.97, -2.8, -1.73, -0.55, 0.0, 0.0, 0.57, 0.58, 0.0, -0.57, -0.59, 0.0, 1.34, 2.4, 3.32, 3.74, 3.04, 2.68, 3.13, 3.13, 1.79, 4.02, 2.24, 4.02, 4.02, 3.39, 3.13, 2.68, 2.68, 2.68, 2.24, 2.24, 2.4, 1.58, 0.0, 0.0, 1.4, 2.8, 2.4, 1.9, 1.2, 1.2, 1.9, 1.58, 0.0, -0.6, -1.79, -1.58, -0.63, -0.45, 0.0, 0.89, 0.0, -2.24, -3.58, -2.63, -0.57, 0.57, 0.99, 1.24, 0.65, 0.0, 0.0, 0.0, -0.59, -1.61, -1.0, -1.2, -1.84, -2.48, -2.51, -2.21, -1.84, -1.27, -1.13, -1.61, -1.61, -10.41, -10.41, -10.41, -10.23, -10.23, -10.23, -10.23, -9.86, -9.86, -9.86, -9.3, -9.3, -8.73, -8.73, -8.38, -8.15, -8.19, -7.59, -6.97, -5.72, -4.42, -3.97, -3.49, -1.65, 0.0, 0.0, 0.0, 0.0, 0.0, 0.0, -1.16, -1.84, -1.16, 0.63, 3.09, 2.91, 2.91, 2.6, 2.24, 1.79, 1.2, 1.34, 1.34, 1.79, 3.58, 3.58, 3.13, 2.68, 2.68, 2.68, 2.68, 3.13, 3.13, 3.13, 2.8, 1.4, 1.6, 2.84, 2.53, 1.4, 1.4, 0.0, 0.0, 1.2, 3.58, 1.2, 0.0, -2.12, -2.68, -2.12, -1.9, -1.24, -0.0, 0.0, -1.2, -2.91, -2.8, -0.63, 0.0, 0.0, 0.0, -0.57, -0.65, -1.13, -1.13, -1.16, -1.16, -0.54, -1.88, -2.23, -2.51, -2.07, -2.53, -3.14, -2.51, -1.84, -1.61, -1.61, -10.41, -10.41, -10.41, -10.41, -10.23, -10.23, -10.23, -9.86, -9.86, -9.86, -9.3, -9.3, -8.73, -8.73, -8.65, -8.03, -7.81, -8.15, -6.35, -5.08, -4.63, -4.6, -4.42, -2.9, -1.45, -1.11, -1.75, -1.52, -1.44, -1.67, -1.71, -2.16, -1.6, 0.0, 2.24, 3.98, 3.87, 3.53, 1.79, 1.34, 1.2, 1.2, 0.95, 2.8, 2.97, 3.13, 2.68, 2.68, 2.68, 3.13, 3.58, 3.58, 4.02, 3.58, 3.82, 3.35, 2.53, 2.53, 1.13, 0.0, 0.0, 0.0, 0.0, 0.89, 2.12, 1.58, 0.0, -1.9, -1.88, -1.6, -1.34, -0.95, 0.0, 0.0, -0.54, -1.79, -2.5, -2.86, -2.4, -1.7, -2.4, -2.5, -2.53, -2.84, -2.23, -2.23, -2.23, -1.84, -2.15, -2.53, -2.53, -2.51, -2.79, -3.72, -3.14, -2.23, -2.23, -2.23, -10.41, -10.41, -10.41, -10.41, -10.41, -10.23, -9.86, -9.86, -9.86, -9.86, -9.3, -9.3, -8.73, -8.73, -8.73, -8.08, -8.08, -7.73, -6.7, -5.3, -5.28, -6.33, -6.34, -5.49, -5.59, -5.21, -4.46, -4.45, -3.8, -3.37, -2.29, -1.73, -1.88, 0.0, 1.86, 3.53, 4.02, 3.58, 3.58, 2.68, 2.6, 2.17, 2.0, 2.8, 2.91, 2.68, 2.68, 2.68, 2.68, 3.13, 3.58, 4.02, 4.02, 4.02, 2.12, 1.86, 3.48, 1.24, 0.0, 0.0, -1.4, 0.0, 0.0, 1.79, 1.6, 1.26, 0.63, 0.0, 0.0, 0.73, 0.76, 0.8, 0.76, 0.0, -2.35, -2.73, -2.8, -3.32, -3.32, -3.13, -3.51, -3.45, -3.14, -3.14, -2.53, -1.84, -0.51, 0.59, -1.16, -1.2, -2.21, -3.16, -3.79, -4.09, -4.11, -3.72, -3.49, -3.49, -10.41, -10.41, -10.41, -10.41, -10.41, -10.23, -9.86, -9.86, -9.86, -9.3, -9.3, -9.3, -8.73, -8.73, -8.73, -8.15, -8.08, -8.08, -8.0, -7.68, -7.59, -7.6, -7.6, -7.3, -7.3, -6.97, -5.72, -5.1, -4.08, -2.77, -1.84, -1.11, -0.53, 0.0, 1.9, 3.39, 3.87, 4.44, 4.47, 4.02, 3.53, 3.07, 3.07, 3.39, 3.53, 3.13, 2.68, 2.68, 2.68, 3.58, 3.58, 3.58, 3.58, 3.58, 4.02, 1.86, 2.21, 2.5, 1.6, -1.2, -1.9, -1.79, -0.0, 1.2, 0.6, 0.6, 0.95, 0.89, 2.23, 3.79, 4.65, 3.88, 1.58, 0.0, -3.69, -6.95, -3.07, -3.32, -3.45, -3.53, -3.51, -3.07, -2.53, -1.16, 0.0, 0.0, 1.13, 1.8, 1.23, 0.57, -1.27, -3.79, -4.43, -4.37, -5.02, -5.02, -4.52, -4.52, -10.41, -10.41, -10.41, -10.41, -10.41, -9.86, -9.86, -9.86, -9.5, -9.3, -9.3, -9.3, -9.3, -8.73, -8.73, -8.38, -8.15, -8.15, -9.08, -9.37, -8.19, -7.27, -7.55, -7.59, -6.7, -6.34, -5.08, -4.03, -2.75, -1.65, -0.58, 0.0, 0.0, 0.53, 2.21, 3.6, 4.11, 4.34, 4.88, 4.44, 4.44, 3.98, 3.53, 3.53, 3.53, 3.53, 2.68, 2.68, 3.13, 3.58, 3.58, 3.58, 3.58, 3.58, 3.58, 3.82, 3.04, 3.74, 3.58, 0.0, -0.6, -0.0, 0.6, 0.6, -0.0, 0.95, 0.95, 1.2, 1.34, 1.6, 2.98, 2.95, 1.88, 0.65, -6.4, -9.05, -6.98, -3.07, -2.63, -3.32, -3.58, -3.53, -2.15, -0.54, 0.0, 0.61, 0.61, 0.51, 0.0, 0.0, -1.3, -3.76, -4.74, -4.12, -3.6, -4.3, -4.3, -4.3, -10.68, -10.68, -10.41, -10.41, -9.86, -9.86, -9.86, -9.86, -9.3, -9.3, -9.3, -9.3, -9.3, -8.73, -8.73, -8.73, -8.15, -8.38, -8.78, -8.53, -7.6, -6.35, -5.72, -5.72, -5.72, -5.29, -4.63, -3.32, -2.37, -1.18, -0.57, 0.0, 0.0, 1.13, 2.23, 3.14, 3.88, 4.6, 4.8, 4.8, 4.77, 4.3, 3.98, 3.53, 3.54, 3.58, 3.13, 3.13, 3.13, 3.13, 3.13, 3.13, 3.13, 3.58, 3.58, 4.02, 2.68, 2.68, 2.24, 0.6, -0.0, -0.0, 0.6, 0.63, 0.95, 1.6, 1.34, 0.89, 0.0, 0.0, 0.0, -0.0, 2.24, 2.68, -4.02, -8.19, -9.05, -5.72, -2.5, -2.24, -3.53, -3.53, -3.13, -2.17, -1.58, -1.2, -1.16, -1.84, -2.48, -3.38, -2.8, -4.71, -4.12, -2.53, -1.86, -2.91, -4.11, -4.11, -10.68, -10.68, -10.41, -10.41, -9.86, -9.86, -9.86, -9.5, -9.3, -9.3, -9.3, -9.3, -9.3, -8.45, -8.45, -8.73, -8.15, -8.19, -8.45, -8.22, -7.32, -6.35, -5.34, -5.09, -5.09, -4.66, -4.42, -3.49, -2.86, -1.69, -1.18, -0.57, 0.0, 0.57, 1.8, 2.84, 3.72, 3.88, 4.6, 4.66, 4.77, 4.3, 3.98, 3.54, 3.58, 3.58, 3.58, 3.13, 3.13, 3.13, 3.13, 3.13, 3.13, 3.58, 3.58, 3.58, 1.79, 1.7, 1.79, 0.89, -0.0, -0.0, -0.0, 0.95, 1.6, 3.04, 2.24, 3.13, 0.45, -0.89, -1.6, -0.0, 1.34, 2.17, 1.34, -4.77, -7.81, -6.52, -4.19, -1.24, -2.24, -4.3, -4.43, -4.02, -4.02, -3.97, -3.6, -3.72, -4.12, -4.11, -3.38, -2.51, -1.86, -0.89, -0.8, -2.5, -3.72, -3.72, -10.3, -10.3, -10.3, -10.04, -9.86, -9.86, -9.5, -9.5, -9.3, -9.3, -9.3, -9.3, -9.3, -8.78, -8.45, -8.45, -8.19, -8.19, -8.19, -7.9, -7.6, -6.98, -5.72, -5.08, -4.66, -4.66, -4.66, -4.2, -3.52, -2.86, -1.71, -1.12, 0.0, 0.55, 1.27, 2.51, 2.84, 3.72, 4.4, 4.6, 4.6, 4.3, 3.87, 3.54, 3.58, 3.13, 3.13, 2.68, 2.68, 2.68, 3.07, 3.13, 2.97, 2.97, 2.97, 2.97, 2.8, 1.2, 0.45, 0.0, 0.0, -0.89, -0.89, 1.2, 2.12, 2.54, 2.68, 2.24, 0.89, -0.95, -1.26, -1.7, 0.0, 1.2, 1.7, 0.0, -1.58, -2.84, -4.19, -1.4, -1.9, -3.58, -5.2, -5.32, -5.36, -4.92, -5.31, -4.93, -4.93, -3.72, -1.61, -0.53, 0.0, 0.0, -1.24, -2.23, -2.84, -2.84, -10.3, -10.3, -10.3, -10.13, -9.86, -9.86, -9.86, -9.5, -9.3, -9.3, -9.3, -9.3, -9.3, -9.02, -8.45, -8.45, -8.19, -7.86, -8.19, -7.9, -7.6, -7.6, -6.7, -5.98, -5.32, -4.66, -4.66, -4.0, -4.0, -3.35, -2.23, -1.76, -0.53, 0.0, 1.11, 1.8, 2.23, 3.43, 3.88, 4.27, 4.11, 4.11, 3.87, 3.53, 3.53, 3.13, 3.13, 2.68, 2.68, 2.68, 3.07, 3.09, 3.39, 3.39, 3.39, 2.8, 2.8, 2.4, 1.34, 0.0, -0.6, -0.8, 0.0, 1.34, 1.79, 2.12, 2.24, 1.79, 0.0, -0.89, -1.58, -2.23, -1.6, 0.0, 0.63, 0.6, 0.0, -1.84, -2.79, -2.3, -2.07, -3.32, -4.47, -5.32, -5.32, -4.92, -4.87, -4.3, -3.39, -2.68, -1.79, 0.0, 0.0, -0.51, -1.6, -2.07, -2.23, -2.23, -10.3, -10.3, -10.3, -10.13, -10.13, -10.13, -9.76, -9.76, -9.3, -9.3, -9.3, -9.3, -9.3, -9.3, -8.45, -8.45, -8.19, -7.86, -7.86, -7.86, -7.6, -7.6, -7.27, -6.34, -5.98, -5.32, -4.66, -4.0, -4.03, -3.37, -2.92, -2.14, -1.67, -0.54, 0.0, 1.11, 1.58, 2.23, 2.84, 3.72, 3.6, 3.82, 3.39, 3.53, 3.53, 3.07, 2.68, 2.68, 2.68, 2.68, 3.07, 3.53, 3.39, 3.39, 2.12, 1.7, 1.9, 1.2, 0.63, 0.0, 0.0, 0.0, 0.0, 1.24, 3.39, 1.79, 1.34, 0.0, -0.89, -1.79, -2.8, -3.83, -2.6, -1.79, 0.0, 0.0, 0.0, -1.84, -3.07, -3.07, -2.98, -2.79, -3.53, -4.3, -5.44, -4.92, -4.87, -3.53, -1.79, -1.86, -3.07, -3.09, -1.84, -1.8, -2.48, -2.48, -2.48, -2.48, -10.3, -10.3, -10.13, -10.13, -10.13, -9.76, -9.76, -9.76, -9.5, -9.3, -9.3, -9.3, -9.3, -9.3, -8.45, -8.45, -8.19, -7.86, -7.86, -7.59, -7.59, -7.6, -7.6, -6.98, -6.35, -5.72, -5.08, -4.69, -4.05, -3.4, -2.77, -2.32, -1.7, -1.19, 0.0, 0.57, 1.11, 1.8, 2.84, 3.35, 3.6, 3.39, 3.39, 3.53, 3.39, 3.07, 2.68, 2.24, 2.24, 2.68, 3.09, 3.53, 3.53, 3.09, 2.91, 1.6, 1.58, -0.0, -0.0, -0.0, 0.0, 0.0, 0.54, 1.24, 1.26, 2.68, 0.45, 0.0, -0.89, -1.79, -2.12, -2.53, -3.16, -2.6, -1.86, -0.63, -0.95, -1.88, -2.53, -3.79, -3.79, -4.45, -3.48, -3.13, -3.82, -5.32, -5.2, -3.07, -1.9, -2.4, -3.97, -4.47, -3.14, -3.16, -2.86, -3.15, -3.15, -3.15, -10.3, -10.3, -10.13, -10.13, -9.76, -9.76, -9.76, -9.76, -9.76, -9.3, -9.3, -9.3, -9.3, -9.3, -9.08, -8.45, -8.19, -7.86, -7.86, -7.59, -7.59, -7.59, -7.6, -6.98, -6.35, -6.08, -5.72, -4.69, -4.05, -3.42, -3.0, -2.36, -1.88, -1.08, 0.0, 0.51, 1.13, 1.6, 2.23, 2.79, 3.07, 2.91, 3.07, 2.12, 2.12, 3.07, 2.68, 2.24, 2.24, 2.68, 3.53, 3.53, 3.07, 3.07, 2.6, 2.12, 1.26, -0.0, -0.0, -0.0, -0.0, 0.63, 0.57, 0.57, 0.6, 0.89, 0.45, 0.0, -0.45, -1.34, -1.79, -2.41, -3.0, -3.43, -3.13, -1.86, -1.7, -2.6, -2.86, -3.07, -3.07, -4.75, -3.85, -2.86, -2.6, -3.32, -4.75, -3.48, -3.6, -3.98, -4.43, -4.92, -4.88, -4.27, -3.78, -3.48, -3.43, -3.43, -10.3, -10.3, -10.13, -9.76, -9.76, -9.76, -9.76, -9.76, -9.76, -9.5, -9.3, -9.3, -9.3, -9.3, -9.3, -8.73, -8.45, -7.86, -7.86, -7.86, -7.59, -7.59, -7.59, -7.59, -6.97, -6.35, -5.72, -5.36, -4.46, -3.42, -3.0, -2.36, -2.2, -1.11, 0.0, 0.0, 0.59, 1.61, 2.21, 2.5, 2.68, 2.91, 2.63, 2.6, 2.6, 1.79, 1.79, 2.24, 2.17, 3.07, 3.07, 3.07, 3.07, 2.6, 2.6, 2.17, 1.7, 0.8, -0.0, -0.0, -0.0, 0.0, 0.0, 0.0, 0.0, 0.0, 0.0, -0.0, -0.0, -0.89, -3.04, -4.22, -3.11, -3.06, -3.91, -2.84, -2.17, -2.68, -3.51, -3.14, -3.72, -5.37, -5.08, -4.12, -1.8, -1.2, -3.07, -5.2, -6.58, -7.12, -6.67, -5.77, -5.36, -4.73, -4.27, -4.37, -3.79, -3.79, -10.3, -10.3, -9.76, -9.76, -9.76, -9.76, -9.76, -9.76, -9.76, -9.76, -9.3, -9.3, -9.3, -9.3, -9.3, -8.73, -8.45, -8.19, -7.86, -7.86, -7.59, -7.27, -7.27, -7.27, -6.97, -6.35, -6.01, -5.1, -4.08, -3.84, -3.45, -2.82, -2.2, -1.11, 0.0, 0.0, 0.61, 1.16, 1.88, 2.15, 2.4, 2.4, 2.17, 2.17, 2.24, 0.89, 0.89, 1.79, 2.24, 2.63, 2.63, 2.6, 2.6, 2.6, 2.6, 2.6, 2.24, 1.79, 1.2, 0.63, -0.0, 0.0, 0.0, -0.89, -0.89, 0.0, -0.45, -1.2, -1.34, -2.6, -5.34, -5.31, -3.83, -1.55, -2.31, -3.69, -3.2, -1.9, -3.07, -3.82, -4.37, -4.75, -5.01, -4.43, -2.61, -1.13, -0.99, -2.68, -3.98, -5.78, -6.11, -5.64, -4.92, -5.32, -5.02, -5.2, -4.73, -4.73, -10.3, -10.3, -9.76, -9.76, -9.76, -9.76, -9.76, -9.76, -9.76, -9.76, -9.3, -9.3, -9.3, -8.94, -8.94, -8.73, -8.73, -8.19, -7.86, -8.15, -7.55, -7.55, -7.55, -7.55, -7.55, -6.95, -5.72, -5.1, -3.64, -3.45, -3.45, -2.82, -2.2, -1.11, -0.59, 0.0, 0.61, 1.2, 1.9, 1.58, 1.86, 2.12, 2.12, 1.7, 1.79, 1.34, 1.34, 1.79, 2.24, 2.17, 2.17, 2.17, 2.17, 2.17, 2.17, 2.6, 2.24, 2.24, 1.79, 1.79, -0.0, 0.0, -0.63, -0.6, -0.6, 0.0, 0.0, -1.34, -3.13, -4.8, -3.2, -2.24, -2.68, -2.23, -1.58, -2.21, -3.8, -1.6, -1.24, -2.5, -2.51, -2.51, -2.53, -2.6, -2.44, -1.73, -0.55, 0.0, -0.63, -2.12, -3.32, -3.87, -4.88, -5.36, -5.24, -5.44, -5.2, -5.2, -10.55, -10.55, -9.76, -9.76, -9.76, -9.76, -9.76, -9.76, -9.76, -9.76, -9.58, -9.58, -9.58, -9.21, -8.94, -8.94, -8.73, -8.73, -8.15, -8.15, -7.55, -7.55, -7.55, -7.23, -7.23, -6.95, -6.32, -5.1, -4.47, -2.98, -3.47, -3.49, -2.2, -1.58, -0.59, 0.0, 0.0, 1.2, 1.24, 1.26, 1.26, 1.6, 1.6, 1.2, 1.34, 1.34, 0.89, 1.34, 1.79, 2.12, 2.12, 2.12, 1.86, 2.12, 2.12, 1.79, 1.79, 1.79, 1.79, 1.79, 1.34, 0.0, -0.0, -0.0, -0.0, -0.0, 0.0, 0.0, -1.58, -1.58, -0.6, 0.0, -1.79, -3.83, -2.8, -1.49, -1.49, -0.57, 0.0, 0.0, 0.0, 0.0, -0.59, -0.59, -1.7, -1.84, -1.7, -1.08, 0.0, 0.0, -0.0, -2.12, -3.53, -4.92, -5.36, -5.2, -5.02, -5.02, -10.16, -10.16, -9.76, -9.76, -9.76, -9.76, -9.76, -9.76, -9.76, -9.76, -9.58, -9.58, -9.21, -9.21, -8.94, -8.94, -8.73, -8.73, -8.15, -8.15, -7.55, -7.55, -7.51, -7.51, -7.51, -6.92, -6.32, -5.69, -5.08, -4.12, -3.49, -2.84, -2.44, -1.76, -1.11, -0.59, 0.0, 0.54, 0.57, 0.8, 1.2, 1.2, 1.2, 0.89, 0.89, 0.89, 0.89, 1.34, 1.7, 1.7, 2.12, 1.86, 1.86, 1.7, 1.6, 1.79, 1.34, 1.34, 1.79, 1.79, 1.79, 1.34, 1.34, 0.0, 0.0, 0.0, 0.0, 0.0, 0.0, 0.0, 0.0, 0.0, -2.0, -5.82, -5.37, -2.11, -0.65, 0.71, 2.07, 2.04, 0.69, 0.0, 0.0, -0.7, -1.35, -2.14, -2.8, -2.8, -1.84, -0.57, 0.0, -0.0, -1.79, -3.58, -4.92, -5.32, -5.2, -5.2, -10.16, -10.16, -10.02, -9.76, -9.76, -9.76, -9.76, -9.76, -9.76, -9.76, -9.76, -9.58, -9.21, -9.21, -9.21, -8.94, -8.94, -8.73, -8.38, -8.15, -7.81, -7.51, -7.51, -7.17, -6.92, -6.92, -6.32, -5.69, -5.08, -4.45, -3.83, -3.12, -2.44, -2.22, -1.58, -1.13, 0.0, 0.0, 0.0, 0.6, 0.63, 0.63, 0.89, 0.0, 0.0, 0.0, 0.89, 1.2, 1.6, 1.7, 1.26, 1.26, 1.26, 1.6, 1.6, 1.34, 1.34, 1.34, 1.34, 1.79, 1.79, 1.79, 1.79, 1.79, 0.0, 0.0, 0.0, -0.45, -0.45, -0.45, -0.45, -0.89, -3.48, -5.59, -5.49, -3.0, 0.0, 3.79, 4.46, 2.31, 0.0, -0.69, -1.3, -1.88, -2.04, -2.29, -3.42, -2.66, -3.15, -2.23, -0.6, 0.0, -0.89, -2.24, -3.58, -4.92, -5.78, -5.78, -10.16, -10.16, -10.02, -9.76, -9.76, -9.76, -9.76, -9.76, -9.76, -9.76, -9.76, -9.58, -9.21, -9.21, -9.21, -9.21, -8.94, -8.73, -8.38, -8.15, -8.08, -7.51, -7.17, -6.92, -7.21, -6.87, -6.28, -5.69, -4.75, -4.45, -3.83, -3.49, -2.86, -2.22, -1.58, -1.13, -0.53, 0.0, 0.0, 0.0, 0.0, 0.0, 0.0, 0.0, 0.0, 0.0, -0.0, 1.2, 1.6, 1.26, 1.26, 1.26, 1.26, 1.6, 1.2, 1.34, 1.34, 1.34, 1.34, 1.79, 1.79, 1.79, 1.79, 0.45, 0.0, 0.0, 0.0, 0.0, -0.0, -0.45, -0.89, -1.34, -2.21, -2.4, -2.35, -1.49, 0.74, 2.31, 2.23, 0.67, -0.69, -1.3, -1.41, -1.27, -1.41, -1.94, -2.11, -2.66, -3.12, -2.48, -1.2, 0.0, -0.63, -1.7, -2.6, -3.53, -5.32, -5.32, -10.16, -10.16, -10.02, -10.02, -9.76, -9.76, -9.76, -9.76, -9.76, -9.76, -9.76, -9.58, -9.21, -9.21, -9.21, -9.21, -9.21, -8.73, -8.38, -8.08, -8.08, -7.51, -7.44, -6.87, -6.87, -6.87, -6.28, -5.65, -5.06, -4.43, -3.83, -3.49, -2.86, -2.6, -2.23, -1.6, -0.65, -0.57, 0.0, 0.0, 0.0, 0.0, 0.0, 0.0, -0.45, 0.0, -0.0, 0.95, 1.26, 1.26, 0.8, 0.8, 1.26, 1.2, 1.2, 1.34, 1.34, 1.34, 1.79, 1.79, 1.79, 1.79, 1.34, 0.0, 0.0, 0.0, 0.0, 0.0, 0.0, 0.0, 0.0, -0.45, 0.0, 0.0, 0.0, -1.6, -2.4, -2.31, -3.06, -2.75, -2.12, -1.23, -1.13, -1.13, -1.8, -1.94, -2.8, -2.88, -2.66, -2.48, -1.33, 0.0, -0.57, -1.58, -2.4, -2.91, -3.32, -3.98, -10.16, -10.16, -10.02, -10.02, -10.02, -10.02, -10.02, -10.02, -9.76, -9.76, -9.76, -9.76, -9.21, -9.21, -9.21, -9.21, -9.21, -9.01, -8.65, -8.08, -7.73, -7.17, -7.21, -6.87, -6.87, -6.52, -6.57, -5.65, -5.06, -4.43, -4.11, -3.49, -3.15, -2.86, -2.23, -1.84, -1.2, -0.57, -0.6, -0.63, -0.63, -0.89, -0.89, -0.45, -0.89, -0.63, -0.0, 0.8, 1.26, 0.6, 0.6, 0.6, 0.6, 0.95, 0.95, 0.95, 1.34, 1.34, 1.79, 1.79, 2.24, 1.79, 1.79, 0.0, 0.0, 0.0, 0.0, 0.0, 0.45, 0.45, 0.0, -0.45, -0.89, 0.0, 0.0, -0.8, -4.03, -6.53, -6.87, -5.52, -3.32, -2.07, -1.8, -1.8, -2.0, -2.66, -2.8, -2.6, -2.0, -1.27, -0.59, -0.61, -0.54, -1.24, -2.4, -2.91, -3.32, -3.32, -10.16, -10.16, -10.02, -10.02, -10.02, -10.02, -10.02, -10.02, -10.02, -9.76, -9.76, -9.76, -9.76, -9.21, -9.21, -9.21, -9.21, -9.21, -8.65, -8.08, -7.73, -7.44, -6.87, -6.87, -6.79, -6.57, -6.23, -5.65, -5.35, -4.43, -4.11, -3.49, -3.48, -2.86, -2.84, -1.84, -1.2, -1.24, -1.26, -1.2, -0.95, -0.89, -1.34, -1.34, -0.89, -1.2, -0.0, 0.6, 0.6, -0.0, -0.0, -0.0, 0.6, 0.95, 0.95, 0.95, 0.95, 1.2, 1.79, 1.79, 2.24, 2.24, 1.79, 1.79, 0.0, 0.0, 0.0, 0.0, 0.89, 0.89, 0.0, -0.89, -2.24, -1.58, 0.0, 1.52, 0.0, -4.74, -6.64, -5.59, -3.32, -2.0, -1.94, -1.41, -0.66, -1.23, -1.41, -1.47, -1.27, -0.66, -0.59, -0.61, -1.2, -1.24, -2.23, -2.8, -3.32, -3.32, -10.16, -10.16, -10.02, -10.02, -10.02, -10.02, -10.02, -10.02, -10.02, -10.02, -9.76, -9.76, -9.76, -9.21, -9.21, -9.21, -9.21, -9.21, -8.65, -8.08, -8.0, -7.44, -6.87, -6.79, -6.57, -6.57, -6.23, -5.65, -5.35, -4.43, -4.37, -4.07, -3.48, -3.16, -2.84, -2.53, -1.9, -1.86, -1.26, -1.2, -1.2, -1.34, -1.34, -1.79, -1.79, -0.63, -0.0, -0.0, -0.0, -0.0, -0.0, -0.0, -0.0, 0.95, 0.95, 0.95, 0.95, 1.2, 1.6, 1.7, 2.24, 2.24, 2.24, 2.24, 2.24, 1.79, 0.0, 1.79, 1.2, 0.89, 0.0, -0.63, -2.24, -2.68, 0.0, 1.74, 1.61, 0.0, -2.5, -4.19, -1.88, -0.61, 0.0, 0.0, 0.0, 0.0, 0.0, -0.67, -0.7, -0.63, -0.66, -0.59, -1.16, -1.49, -2.23, -2.8, -2.91, -2.91, -10.16, -10.16, -10.02, -10.02, -10.02, -10.02, -10.02, -10.02, -10.02, -10.02, -10.02, -9.76, -9.76, -9.38, -9.21, -9.21, -9.21, -9.21, -8.65, -8.37, -8.0, -7.44, -7.15, -6.79, -6.57, -6.23, -6.23, -6.15, -5.59, -5.29, -4.37, -4.07, -4.07, -3.48, -2.84, -2.53, -2.15, -1.86, -2.12, -1.7, -1.7, -1.79, -1.79, -1.79, -1.79, -1.2, -0.0, -0.0, -0.0, -0.0, -0.0, -0.0, -0.0, 0.95, 0.95, 0.95, 0.95, 1.2, 1.6, 1.7, 2.12, 2.17, 2.24, 2.24, 2.24, 2.24, 2.24, 2.24, 1.6, 1.2, 0.0, -0.89, -2.68, -2.24, -1.34, 0.0, 1.2, 1.2, 0.0, -0.6, -0.57, 0.0, 0.69, 0.73, 0.0, 0.0, 0.0, -0.69, -0.72, -0.72, -0.76, -1.41, -1.33, -1.88, -2.4, -2.8, -2.8, -2.8, -10.16, -10.16, -10.02, -10.02, -10.02, -10.02, -10.02, -10.02, -10.02, -10.02, -10.02, -9.76, -9.76, -9.76, -9.21, -9.21, -9.21, -8.84, -8.93, -8.55, -8.0, -7.72, -7.15, -6.79, -6.23, -6.23, -6.23, -6.15, -5.59, -5.29, -4.71, -4.65, -4.07, -4.0, -3.43, -2.79, -2.5, -2.4, -2.17, -2.12, -2.24, -1.79, -1.79, -1.79, -1.34, -0.89, -0.0, -0.0, -0.0, -0.0, -0.0, -0.0, -0.0, 0.63, 0.6, 0.6, 0.6, 1.26, 1.26, 1.49, 2.12, 2.17, 2.6, 2.68, 2.24, 2.24, 2.24, 3.13, 1.7, 1.2, 0.0, -0.89, -3.04, -2.6, -2.12, -0.8, 0.0, 0.73, 1.47, 1.55, 3.11, 4.07, 2.89, 1.43, 0.0, 0.0, -0.71, -1.36, -1.52, -1.52, -1.41, -1.47, -2.0, -2.84, -2.5, -2.4, -2.4, -2.4, -10.02, -10.02, -10.02, -10.02, -10.02, -10.02, -10.02, -10.02, -10.02, -10.02, -10.02, -10.02, -9.76, -9.76, -9.38, -9.21, -9.21, -9.1, -8.93, -8.18, -8.27, -7.72, -7.15, -6.79, -6.23, -6.51, -6.51, -6.15, -5.93, -5.49, -4.94, -4.65, -4.65, -4.0, -3.43, -2.79, -2.68, -2.49, -2.6, -2.17, -2.24, -2.24, -2.24, -2.24, -1.34, -0.89, -0.0, -0.6, -0.8, -0.8, -0.0, -0.0, -0.0, 0.63, 0.6, 0.6, 0.6, 1.26, 1.26, 1.86, 1.86, 2.6, 2.6, 2.6, 2.68, 2.24, 2.24, 1.2, 1.6, 0.95, 0.0, -0.63, -2.12, -1.86, -1.26, 0.0, 0.0, 0.0, 0.79, 4.0, 7.44, 7.67, 4.92, 2.76, 0.69, -0.67, -1.32, -1.41, -2.04, -1.35, -2.09, -1.8, -2.73, -2.79, -1.9, -1.2, -1.2, -1.2, -10.02, -10.02, -10.02, -10.02, -10.02, -10.02, -10.02, -10.02, -10.02, -10.02, -10.02, -10.02, -9.76, -9.76, -9.38, -9.21, -9.48, -9.1, -8.93, -8.55, -7.9, -7.35, -7.15, -6.79, -6.51, -6.51, -6.15, -6.15, -5.93, -5.86, -5.29, -5.21, -4.65, -4.55, -3.88, -3.6, -3.39, -2.91, -2.63, -2.6, -2.68, -2.24, -2.24, -2.24, -1.79, -1.34, -0.95, -0.8, -0.57, -0.8, -0.0, -0.0, -0.0, 0.63, 0.6, 0.6, 0.6, 1.26, 1.26, 1.86, 1.86, 2.4, 2.4, 2.8, 2.17, 2.24, 2.24, 0.89, 0.95, 0.95, 0.0, -0.89, -0.95, -0.6, 0.0, 0.32, 0.0, 0.0, 0.78, 4.03, 6.88, 7.24, 4.68, 2.83, 0.67, 0.0, -1.41, -1.98, -2.2, -2.16, -2.4, -1.16, -1.4, -1.49, -0.63, -0.0, -0.0, -0.0, -10.02, -10.02, -10.02, -10.02, -10.02, -10.02, -10.02, -10.02, -10.02, -10.02, -10.02, -10.02, -10.02, -9.76, -9.38, -9.48, -9.48, -9.1, -9.1, -8.82, -7.9, -7.72, -7.61, -7.07, -6.7, -6.51, -6.15, -6.15, -6.41, -5.86, -5.75, -5.21, -5.08, -4.55, -4.27, -3.6, -3.39, -3.53, -3.07, -2.68, -2.68, -2.68, -2.24, -2.24, -1.79, -1.6, -1.26, -1.26, -0.57, -0.57, -0.6, -0.0, -0.0, 0.95, 0.8, 0.6, 0.95, 1.6, 1.26, 1.86, 1.86, 2.4, 2.8, 2.8, 2.4, 2.24, 2.24, 2.24, 1.79, -0.0, 0.0, -0.45, 0.0, 0.0, 0.0, 0.0, 0.0, 0.0, 1.66, 3.79, 4.74, 5.38, 4.6, 2.82, 0.63, 0.0, -1.41, -2.0, -1.4, 0.0, 0.0, 0.0, -0.54, -0.6, 0.0, 0.63, 0.63, 0.63, -10.02, -10.02, -10.02, -10.02, -10.02, -10.02, -10.02, -10.02, -10.02, -10.02, -10.02, -10.02, -10.02, -10.02, -9.63, -9.63, -9.48, -9.1, -8.96, -8.82, -8.43, -8.15, -7.61, -7.07, -6.7, -6.51, -6.15, -6.41, -6.41, -6.03, -5.75, -5.75, -5.47, -4.55, -4.4, -4.11, -3.87, -3.53, -3.09, -3.13, -3.13, -2.68, -2.68, -2.24, -2.24, -1.7, -1.26, -1.24, -1.24, -0.57, -0.8, -0.0, -0.0, -0.0, 0.8, 0.6, 0.95, 1.2, 1.6, 2.12, 1.86, 2.4, 2.8, 2.5, 2.15, 2.4, 2.68, 2.68, 1.58, -0.0, -0.63, -0.63, -0.0, -0.0, -0.0, 0.0, 0.0, 0.6, 2.21, 3.58, 3.16, 4.74, 4.43, 2.5, 0.6, 0.0, -1.24, -1.58, 0.0, 0.0, 0.0, 0.0, 0.0, -0.6, -0.63, 0.0, 0.0, 0.0, -10.02, -10.02, -10.02, -10.02, -10.02, -10.02, -10.02, -10.02, -10.02, -10.02, -10.02, -10.02, -10.02, -10.02, -10.02, -9.63, -9.48, -9.1, -8.96, -8.82, -8.43, -8.15, -7.61, -7.23, -6.7, -6.7, -6.41, -6.41, -6.41, -6.03, -6.13, -5.75, -5.47, -5.31, -4.4, -4.19, -4.3, -3.98, -3.53, -3.13, -3.13, -3.13, -2.68, -2.68, -2.17, -2.12, -1.86, -1.24, -1.24, -1.24, -0.8, -0.6, -0.0, -0.0, 0.57, 0.57, 0.8, 0.8, 1.6, 1.7, 2.12, 2.4, 2.4, 2.5, 1.88, 0.8, 1.2, 1.79, 1.6, 0.95, -0.0, -0.63, -0.63, -0.63, -0.63, -0.0, 0.0, 0.0, 1.2, 1.86, 2.23, 2.8, 3.13, 2.4, 0.95, -0.0, -1.86, -2.17, -1.2, 0.0, 0.0, -0.57, -0.99, -1.26, -1.7, -1.34, -1.34, -1.34, -10.16, -10.16, -10.02, -10.02, -10.02, -10.02, -10.02, -10.02, -10.16, -10.16, -10.16, -10.02, -10.02, -10.02, -10.02, -9.63, -9.48, -9.1, -8.96, -8.82, -8.43, -8.15, -7.61, -7.23, -7.07, -6.95, -6.41, -6.41, -6.41, -6.28, -6.28, -6.0, -5.6, -5.31, -5.09, -4.6, -4.34, -3.98, -3.54, -3.58, -3.58, -3.13, -3.13, -2.68, -2.6, -2.17, -1.86, -1.58, -1.24, -1.24, -1.26, -0.8, -0.0, -0.0, -0.0, 0.54, 0.71, 0.57, 1.26, 1.26, 2.12, 2.6, 2.4, 2.5, 1.84, 0.71, 0.8, 1.6, 2.12, 1.6, 0.63, -0.0, 0.0, -0.63, -0.63, -0.63, -0.0, 0.0, 0.89, 1.79, 2.12, 2.24, 2.15, 2.5, 1.79, -0.42, -1.61, -2.91, -3.13, -2.68, -1.84, -1.88, -1.86, -2.17, -2.17, -1.79, -1.79, -1.79, -10.16, -10.16, -10.16, -10.02, -10.02, -10.27, -10.27, -10.4, -10.16, -10.16, -10.16, -10.16, -10.02, -10.02, -10.02, -9.63, -9.48, -9.35, -8.96, -8.82, -8.68, -8.28, -7.76, -7.23, -7.48, -6.95, -6.95, -6.41, -6.41, -6.28, -6.28, -6.0, -5.6, -5.31, -5.09, -5.24, -4.77, -4.44, -3.98, -4.02, -3.58, -3.58, -3.13, -3.13, -2.63, -2.6, -2.4, -2.23, -1.58, -1.24, -1.58, -0.8, -0.6, -0.0, -0.0, 0.65, 0.65, 0.65, 1.24, 1.58, 1.86, 2.0, 2.4, 2.5, 1.61, 1.13, 0.71, 1.26, 1.6, 1.6, 1.2, 0.45, 0.89, 1.34, 0.45, 0.0, -0.89, -0.0, 0.63, 1.34, 1.34, 1.7, 1.88, 1.9, 1.24, 0.0, -1.26, -2.91, -3.98, -4.44, -4.0, -3.14, -2.91, -2.68, -2.68, -2.24, -2.24, -2.24, -10.16, -10.16, -10.16, -10.02, -10.27, -10.27, -10.27, -10.4, -10.16, -10.16, -10.16, -10.16, -10.16, -10.02, -10.02, -9.63, -9.48, -9.35, -8.96, -8.82, -8.68, -8.68, -7.76, -7.87, -7.48, -6.95, -6.95, -6.56, -6.8, -6.28, -6.28, -6.1, -5.6, -5.4, -5.51, -5.24, -4.8, -4.44, -4.43, -4.02, -4.02, -4.02, -3.58, -3.13, -3.07, -2.6, -2.4, -2.4, -2.23, -1.86, -1.58, -0.8, -0.6, -0.0, -0.0, 0.71, 1.2, 1.2, 1.2, 1.24, 1.86, 1.86, 1.86, 2.15, 1.88, 1.13, -0.0, 0.71, 0.8, 0.6, 1.2, 0.89, 0.89, 1.2, 1.34, 0.0, 0.0, 0.0, 0.89, 1.2, 1.2, 1.24, 1.33, 1.2, 0.53, 0.54, -0.45, -2.4, -3.53, -4.92, -5.67, -4.52, -3.53, -3.13, -2.63, -2.6, -2.6, -2.6, -10.4, -10.4, -10.02, -10.27, -10.27, -10.27, -10.27, -10.4, -10.4, -10.16, -10.16, -10.16, -10.16, -10.02, -10.02, -9.63, -9.88, -9.35, -8.96, -8.96, -8.68, -8.68, -8.0, -8.0, -7.48, -7.48, -6.95, -6.95, -6.8, -6.67, -6.28, -6.1, -5.81, -5.81, -5.57, -5.7, -5.24, -4.88, -4.44, -4.47, -4.47, -4.02, -4.02, -3.58, -3.13, -2.63, -2.4, -2.4, -2.23, -1.86, -1.26, -0.8, -0.0, -0.0, -0.0, 0.6, 1.24, 1.2, 1.4, 1.2, 1.24, 1.58, 1.86, 1.86, 1.61, 1.13, 0.57, -0.0, -0.0, 0.57, 0.4, -0.0, 0.0, 0.89, 0.89, 0.89, 0.0, 0.45, 1.34, 1.7, 1.24, 1.33, 1.24, 1.2, 1.2, 1.0, 0.0, -1.49, -3.07, -4.02, -4.92, -4.43, -3.13, -3.07, -2.91, -2.91, -2.91, -2.91, -10.27, -10.27, -10.27, -10.27, -10.27, -10.27, -10.27, -10.4, -10.4, -10.16, -10.16, -10.16, -10.16, -10.16, -10.02, -9.63, -9.88, -9.35, -8.96, -9.2, -8.68, -8.68, -8.28, -8.0, -7.48, -7.48, -6.95, -7.2, -6.8, -6.8, -6.51, -6.1, -5.88, -5.81, -5.99, -5.57, -5.24, -4.89, -4.88, -4.88, -4.47, -4.47, -4.02, -3.58, -3.58, -3.07, -2.63, -2.4, -1.86, -1.86, -1.26, -0.8, -0.0, -0.0, 0.0, 0.89, 1.6, 1.24, 1.2, 1.2, 1.24, 1.26, 1.26, 1.86, 1.24, 1.2, 0.59, 0.57, -0.0, -0.0, -0.0, -0.0, -0.0, -0.0, 0.89, 0.45, 0.45, 0.45, 0.89, 1.2, 1.2, 0.66, 1.4, 1.34, 1.24, 1.24, 0.45, -1.26, -2.4, -3.53, -4.02, -3.13, -1.86, -2.5, -2.68, -3.07, -3.07, -3.07, -10.27, -10.27, -10.27, -10.27, -10.27, -9.88, -9.88, -10.4, -10.4, -10.16, -10.16, -10.16, -10.16, -10.16, -10.02, -9.63, -9.88, -9.35, -8.96, -9.2, -8.68, -8.68, -8.51, -8.0, -7.48, -7.48, -7.31, -7.2, -6.8, -6.8, -6.51, -6.1, -6.3, -5.88, -6.04, -5.57, -5.7, -5.24, -4.89, -4.89, -4.92, -4.47, -4.47, -4.02, -3.58, -3.09, -3.07, -2.6, -2.0, -1.86, -1.26, -0.6, -0.0, -0.0, -0.0, 0.89, 1.2, 1.26, 1.2, 0.65, 0.71, 0.57, 1.26, 1.58, 1.58, 1.24, 0.65, 0.59, 0.55, -0.0, -0.0, -0.0, -0.0, -0.0, 0.63, 0.89, 0.89, 0.45, 0.45, 0.63, 1.2, 0.67, 0.59, 1.26, 0.95, 0.71, 0.89, -0.0, -1.24, -2.4, -2.5, -1.61, -1.24, -1.9, -2.86, -2.5, -2.5, -2.5, -10.27, -10.27, -10.27, -10.27, -9.88, -9.88, -9.88, -10.4, -10.4, -10.4, -10.16, -10.16, -10.16, -10.16, -10.02, -9.88, -9.88, -9.35, -8.96, -9.2, -8.68, -8.68, -8.51, -8.0, -8.0, -7.48, -7.31, -7.31, -6.8, -6.8, -6.6, -6.51, -6.3, -6.3, -6.04, -5.99, -5.7, -5.26, -5.33, -5.33, -5.33, -4.92, -4.47, -4.47, -4.02, -3.58, -3.07, -2.63, -2.6, -1.86, -1.6, -0.0, -0.0, -0.0, -0.0, 0.89, 1.34, 1.2, 1.24, 0.54, 0.71, 0.57, 1.26, 1.58, 1.58, 1.58, 1.24, 0.53, -0.0, -0.0, -0.0, -0.0, -0.0, 0.4, 1.2, 1.2, 1.2, 0.89, -0.0, -0.0, 0.59, -0.0, -0.0, -0.0, 0.0, 0.0, 0.0, 0.63, -0.0, -0.65, -1.16, -1.16, -1.0, -1.86, -2.15, -2.15, -2.15, -2.15, -10.27, -10.27, -10.27, -9.88, -9.88, -9.88, -9.88, -10.27, -10.4, -10.4, -10.16, -10.55, -10.16, -10.16, -10.27, -9.88, -9.88, -9.35, -9.2, -9.2, -8.8, -8.68, -8.51, -8.0, -8.0, -7.48, -7.31, -7.31, -7.2, -6.8, -7.01, -6.6, -6.72, -6.3, -6.47, -6.04, -5.57, -5.7, -5.7, -5.34, -5.34, -5.33, -4.92, -4.47, -4.02, -3.58, -3.13, -2.63, -2.6, -2.12, -1.6, -0.63, -0.0, -0.0, -0.0, 0.89, 0.89, 1.34, 1.26, 1.24, 1.24, 1.24, 1.24, 1.58, 1.58, 1.58, 1.26, 0.57, 0.53, -0.0, -0.0, -0.0, -0.0, -0.0, 0.63, 0.63, 0.89, 0.45, -0.0, 0.0, 0.54, -0.0, -0.0, -0.53, -0.89, -0.57, 0.0, 0.0, 0.57, -0.0, -0.61, -1.16, -1.9, -1.86, -1.86, -1.49, -1.49, -1.49, -9.88, -9.88, -9.88, -9.88, -9.88, -9.88, -9.88, -10.27, -10.4, -10.4, -10.16, -10.55, -10.16, -10.16, -10.27, -9.88, -9.48, -9.35, -9.2, -9.2, -8.8, -8.68, -8.51, -8.51, -8.0, -7.48, -7.71, -7.31, -7.31, -7.2, -7.01, -6.6, -6.79, -6.3, -6.3, -6.04, -5.99, -5.7, -5.7, -5.7, -5.78, -5.34, -5.33, -4.92, -4.47, -4.02, -3.13, -2.68, -2.68, -2.12, -1.7, -0.63, -0.0, -0.0, -0.0, 0.63, 0.89, 0.89, 0.95, 1.26, 1.24, 1.24, 1.58, 1.58, 1.58, 1.58, 1.26, 1.6, 0.8, -0.0, -0.0, -0.0, -0.0, -0.0, -0.0, -0.0, -0.0, 0.45, 0.0, 0.0, 0.95, -0.0, -0.63, -1.16, -1.7, -1.49, -1.0, 0.0, -0.0, -0.0, -0.65, -1.61, -1.9, -1.7, -1.34, -0.63, -0.63, -0.63, -9.88, -9.88, -9.88, -9.88, -9.88, -9.88, -9.88, -10.27, -10.4, -10.4, -10.4, -10.55, -10.16, -10.4, -9.88, -9.88, -9.48, -9.35, -9.2, -9.2, -8.8, -8.91, -8.51, -8.51, -8.0, -7.6, -7.71, -7.31, -7.31, -7.31, -7.09, -7.01, -6.79, -6.79, -6.3, -6.04, -5.99, -6.14, -5.7, -5.7, -5.7, -5.7, -5.33, -4.89, -4.44, -4.02, -3.58, -3.13, -2.68, -2.24, -1.79, -0.89, 0.0, -0.0, -0.0, -0.0, 0.45, 0.89, 0.89, 1.2, 1.26, 1.86, 1.86, 1.86, 1.58, 1.58, 1.58, 1.26, 1.6, 0.8, -0.0, -0.0, -0.0, 0.0, 0.0, -0.0, 0.45, 0.45, 0.89, 0.45, 0.89, -0.0, -0.66, -1.84, -2.12, -1.86, -1.2, -0.71, 0.0, -0.0, -1.26, -1.26, -1.2, -1.2, -0.57, 0.0, 0.0, 0.0, -9.88, -9.88, -9.88, -9.88, -9.88, -9.88, -9.88, -9.88, -10.4, -10.4, -10.4, -10.16, -10.4, -10.4, -9.88, -9.88, -9.48, -9.6, -9.2, -9.2, -9.2, -8.91, -8.91, -8.51, -8.0, -8.0, -7.81, -7.71, -7.31, -7.31, -7.31, -7.01, -6.6, -6.79, -6.3, -6.47, -6.04, -6.04, -6.16, -6.14, -5.7, -5.7, -5.7, -5.24, -4.88, -4.44, -3.54, -3.13, -2.68, -2.24, -1.34, -0.89, 0.0, 0.0, -0.0, -0.0, 0.0, 0.0, 0.0, 0.89, 1.6, 1.86, 1.86, 1.86, 1.9, 1.9, 1.86, 1.26, 1.26, 0.6, -0.0, -0.0, -0.0, 1.26, 0.63, 0.63, 0.89, 0.45, 0.45, 0.63, -0.0, -0.0, -0.61, -1.61, -2.0, -2.12, -1.24, -0.54, 0.0, 0.0, 0.0, 0.0, 0.0, 0.0, 0.0, 0.0, 0.0, 0.0, -9.88, -9.88, -9.88, -9.88, -9.88, -9.88, -9.88, -9.88, -10.4, -10.4, -10.4, -10.16, -10.4, -10.4, -9.88, -9.88, -9.48, -9.6, -9.2, -9.2, -9.2, -8.91, -8.91, -8.51, -8.0, -8.0, -7.81, -7.71, -7.31, -7.31, -7.31, -7.01, -6.6, -6.79, -6.3, -6.47, -6.04, -6.04, -6.16, -6.14, -5.7, -5.7, -5.7, -5.24, -4.88, -4.44, -3.54, -3.13, -2.68, -2.24, -1.34, -0.89, 0.0, 0.0, -0.0, -0.0, 0.0, 0.0, 0.0, 0.89, 1.6, 1.86, 1.86, 1.86, 1.9, 1.9, 1.86, 1.26, 1.26, 0.6, -0.0, -0.0, -0.0, 1.26, 0.63, 0.63, 0.45, 0.45, 0.45, 0.63, -0.0, -0.0, -0.0, -1.26, -1.7, -1.6, -0.71, 0.0, 0.59, 1.41, 2.04, 2.04, 1.35, 1.27, 0.66, 0.66, 0.66, 0.66]}]